Wetterdaten: Freitag, 14.08.2015
Datum Zeit Temp. Aussen +5cm Feuchte Auss BlattFeu 1 Luftdruck Regen Sonnenschein Regendauer Solar Windben
14.08.2015 00:00 25,6 C 22,8 C 78 % 0 lf 1008,1 hPa 0,0 l/m 0 min 0 min 0 W/m 2,1 km/h (1 Bft)
14.08.2015 00:02 25,6 C 22,8 C 78 % 0 lf 1008,0 hPa 0,0 l/m 0 min 0 min 0 W/m 2,1 km/h (1 Bft)
14.08.2015 00:06 25,6 C 22,8 C 79 % 0 lf 1007,9 hPa 0,0 l/m 0 min 0 min 0 W/m 4,2 km/h (1 Bft)
14.08.2015 00:08 25,5 C 22,8 C 79 % 0 lf 1007,9 hPa 0,0 l/m 0 min 0 min 0 W/m 4,2 km/h (1 Bft)
14.08.2015 00:10 25,5 C 22,8 C 79 % 0 lf 1007,9 hPa 0,0 l/m 0 min 0 min 0 W/m 4,2 km/h (1 Bft)
14.08.2015 00:12 25,4 C 22,8 C 79 % 0 lf 1008,0 hPa 0,0 l/m 0 min 0 min 0 W/m 6,3 km/h (2 Bft)
14.08.2015 00:14 25,4 C 22,8 C 79 % 0 lf 1008,1 hPa 0,0 l/m 0 min 0 min 0 W/m 4,2 km/h (1 Bft)
14.08.2015 00:16 25,4 C 22,8 C 79 % 0 lf 1008,1 hPa 0,0 l/m 0 min 0 min 0 W/m 6,3 km/h (2 Bft)
14.08.2015 00:18 25,3 C 22,8 C 80 % 0 lf 1008,2 hPa 0,0 l/m 0 min 0 min 0 W/m 8,4 km/h (2 Bft)
14.08.2015 00:20 25,3 C 22,8 C 80 % 0 lf 1008,3 hPa 0,0 l/m 0 min 0 min 0 W/m 6,3 km/h (2 Bft)
14.08.2015 00:22 25,3 C 22,2 C 80 % 0 lf 1008,3 hPa 0,0 l/m 0 min 0 min 0 W/m 6,3 km/h (2 Bft)
14.08.2015 00:24 25,2 C 22,2 C 80 % 0 lf 1008,3 hPa 0,0 l/m 0 min 0 min 0 W/m 10,5 km/h (2 Bft)
14.08.2015 00:26 25,2 C 22,2 C 80 % 0 lf 1008,3 hPa 0,0 l/m 0 min 0 min 0 W/m 8,4 km/h (2 Bft)
14.08.2015 00:28 25,1 C 22,2 C 80 % 0 lf 1008,3 hPa 0,0 l/m 0 min 0 min 0 W/m 12,6 km/h (3 Bft)
14.08.2015 00:30 25,1 C 22,2 C 80 % 0 lf 1008,3 hPa 0,0 l/m 0 min 0 min 0 W/m 10,5 km/h (2 Bft)
14.08.2015 00:32 25,1 C 22,2 C 80 % 0 lf 1008,3 hPa 0,0 l/m 0 min 0 min 0 W/m 12,6 km/h (3 Bft)
14.08.2015 00:34 25,1 C 22,8 C 80 % 0 lf 1008,3 hPa 0,0 l/m 0 min 0 min 0 W/m 16,7 km/h (3 Bft)
14.08.2015 00:36 25,0 C 22,8 C 80 % 0 lf 1008,3 hPa 0,0 l/m 0 min 0 min 0 W/m 14,6 km/h (3 Bft)
14.08.2015 00:38 24,9 C 22,8 C 81 % 0 lf 1008,3 hPa 0,0 l/m 0 min 0 min 0 W/m 10,5 km/h (2 Bft)
14.08.2015 00:40 24,9 C 22,8 C 81 % 0 lf 1008,3 hPa 0,0 l/m 0 min 0 min 0 W/m 10,5 km/h (2 Bft)
14.08.2015 00:42 24,9 C 22,8 C 81 % 0 lf 1008,3 hPa 0,0 l/m 0 min 0 min 0 W/m 12,6 km/h (3 Bft)
14.08.2015 00:44 24,9 C 22,8 C 81 % 0 lf 1008,2 hPa 0,0 l/m 0 min 0 min 0 W/m 8,4 km/h (2 Bft)
14.08.2015 00:46 24,8 C 22,8 C 81 % 0 lf 1008,1 hPa 0,0 l/m 0 min 0 min 0 W/m 8,4 km/h (2 Bft)
14.08.2015 00:48 24,8 C 22,8 C 81 % 0 lf 1008,1 hPa 0,0 l/m 0 min 0 min 0 W/m 8,4 km/h (2 Bft)
14.08.2015 00:50 24,8 C 22,8 C 81 % 0 lf 1008,1 hPa 0,0 l/m 0 min 0 min 0 W/m 8,4 km/h (2 Bft)
14.08.2015 00:52 24,8 C 22,8 C 81 % 0 lf 1008,1 hPa 0,0 l/m 0 min 0 min 0 W/m 6,3 km/h (2 Bft)
14.08.2015 00:54 24,8 C 22,8 C 81 % 0 lf 1008,1 hPa 0,0 l/m 0 min 0 min 0 W/m 6,3 km/h (2 Bft)
14.08.2015 00:56 24,8 C 22,2 C 81 % 0 lf 1008,1 hPa 0,0 l/m 0 min 0 min 0 W/m 8,4 km/h (2 Bft)
14.08.2015 00:58 24,7 C 22,2 C 81 % 0 lf 1008,1 hPa 0,0 l/m 0 min 0 min 0 W/m 6,3 km/h (2 Bft)
14.08.2015 01:00 24,7 C 22,2 C 81 % 0 lf 1008,2 hPa 0,0 l/m 0 min 0 min 0 W/m 12,6 km/h (3 Bft)
14.08.2015 01:02 24,7 C 22,2 C 81 % 0 lf 1008,3 hPa 0,0 l/m 0 min 0 min 0 W/m 8,4 km/h (2 Bft)
14.08.2015 01:04 24,7 C 22,2 C 81 % 0 lf 1008,3 hPa 0,0 l/m 0 min 0 min 0 W/m 12,6 km/h (3 Bft)
14.08.2015 01:06 24,7 C 22,2 C 81 % 0 lf 1008,3 hPa 0,0 l/m 0 min 0 min 0 W/m 12,6 km/h (3 Bft)
14.08.2015 01:08 24,6 C 22,2 C 82 % 0 lf 1008,4 hPa 0,0 l/m 0 min 0 min 0 W/m 8,4 km/h (2 Bft)
14.08.2015 01:10 24,6 C 22,2 C 82 % 0 lf 1008,4 hPa 0,0 l/m 0 min 0 min 0 W/m 8,4 km/h (2 Bft)
14.08.2015 01:12 24,6 C 22,2 C 82 % 0 lf 1008,5 hPa 0,0 l/m 0 min 0 min 0 W/m 8,4 km/h (2 Bft)
14.08.2015 01:14 24,6 C 21,7 C 82 % 0 lf 1008,5 hPa 0,0 l/m 0 min 0 min 0 W/m 10,5 km/h (2 Bft)
14.08.2015 01:16 24,5 C 21,7 C 82 % 0 lf 1008,5 hPa 0,0 l/m 0 min 0 min 0 W/m 4,2 km/h (1 Bft)
14.08.2015 01:18 24,5 C 21,7 C 82 % 0 lf 1008,4 hPa 0,0 l/m 0 min 0 min 0 W/m 6,3 km/h (2 Bft)
14.08.2015 01:20 24,4 C 21,7 C 82 % 0 lf 1008,3 hPa 0,0 l/m 0 min 0 min 0 W/m 6,3 km/h (2 Bft)
14.08.2015 01:22 24,4 C 21,7 C 82 % 0 lf 1008,2 hPa 0,0 l/m 0 min 0 min 0 W/m 8,4 km/h (2 Bft)
14.08.2015 01:24 24,4 C 21,7 C 82 % 0 lf 1008,3 hPa 0,0 l/m 0 min 0 min 0 W/m 6,3 km/h (2 Bft)
14.08.2015 01:26 24,3 C 21,7 C 82 % 0 lf 1008,4 hPa 0,0 l/m 0 min 0 min 0 W/m 6,3 km/h (2 Bft)
14.08.2015 01:28 24,3 C 21,7 C 82 % 0 lf 1008,4 hPa 0,0 l/m 0 min 0 min 0 W/m 10,5 km/h (2 Bft)
14.08.2015 01:30 24,3 C 21,7 C 82 % 0 lf 1008,5 hPa 0,0 l/m 0 min 0 min 0 W/m 8,4 km/h (2 Bft)
14.08.2015 01:32 24,2 C 21,7 C 82 % 0 lf 1008,6 hPa 0,0 l/m 0 min 0 min 0 W/m 14,6 km/h (3 Bft)
14.08.2015 01:34 24,2 C 21,7 C 83 % 0 lf 1008,8 hPa 0,0 l/m 0 min 0 min 0 W/m 14,6 km/h (3 Bft)
14.08.2015 01:36 24,1 C 21,7 C 83 % 0 lf 1009,0 hPa 0,0 l/m 0 min 0 min 0 W/m 23,0 km/h (4 Bft)
14.08.2015 01:38 24,0 C 21,7 C 83 % 0 lf 1009,0 hPa 0,0 l/m 0 min 0 min 0 W/m 23,0 km/h (4 Bft)
14.08.2015 01:40 23,9 C 21,7 C 82 % 0 lf 1009,0 hPa 0,0 l/m 0 min 0 min 0 W/m 29,3 km/h (5 Bft)
14.08.2015 01:42 23,8 C 21,7 C 81 % 0 lf 1009,0 hPa 0,0 l/m 0 min 0 min 0 W/m 31,4 km/h (5 Bft)
14.08.2015 01:44 23,6 C 21,1 C 80 % 0 lf 1008,9 hPa 0,0 l/m 0 min 0 min 0 W/m 25,1 km/h (4 Bft)
14.08.2015 01:46 23,5 C 21,1 C 80 % 0 lf 1008,9 hPa 0,0 l/m 0 min 0 min 0 W/m 16,7 km/h (3 Bft)
14.08.2015 01:48 23,4 C 21,1 C 80 % 0 lf 1009,0 hPa 0,0 l/m 0 min 0 min 0 W/m 20,9 km/h (4 Bft)
14.08.2015 01:50 23,3 C 20,6 C 80 % 15 lf 1009,0 hPa 0,0 l/m 0 min 2 min 0 W/m 20,9 km/h (4 Bft)
14.08.2015 01:52 23,3 C 19,4 C 81 % 15 lf 1009,0 hPa 0,2 l/m 0 min 2 min 0 W/m 27,2 km/h (4 Bft)
14.08.2015 01:54 23,2 C 18,9 C 82 % 15 lf 1008,7 hPa 0,0 l/m 0 min 2 min 0 W/m 16,7 km/h (3 Bft)
14.08.2015 01:56 23,1 C 18,9 C 83 % 15 lf 1008,7 hPa 0,0 l/m 0 min 2 min 0 W/m 16,7 km/h (3 Bft)
14.08.2015 01:58 23,0 C 18,9 C 83 % 15 lf 1008,7 hPa 0,0 l/m 0 min 2 min 0 W/m 23,0 km/h (4 Bft)
14.08.2015 02:00 22,9 C 18,9 C 84 % 15 lf 1008,7 hPa 0,0 l/m 0 min 2 min 0 W/m 20,9 km/h (4 Bft)
14.08.2015 02:02 22,8 C 18,3 C 84 % 15 lf 1008,6 hPa 0,0 l/m 0 min 2 min 0 W/m 23,0 km/h (4 Bft)
14.08.2015 02:04 22,6 C 18,3 C 83 % 15 lf 1008,7 hPa 0,0 l/m 0 min 0 min 0 W/m 25,1 km/h (4 Bft)
14.08.2015 02:06 22,4 C 18,3 C 84 % 15 lf 1008,6 hPa 0,0 l/m 0 min 0 min 0 W/m 18,8 km/h (3 Bft)
14.08.2015 02:08 22,3 C 18,3 C 84 % 15 lf 1008,5 hPa 0,0 l/m 0 min 2 min 0 W/m 14,6 km/h (3 Bft)
14.08.2015 02:10 22,2 C 18,3 C 85 % 15 lf 1008,6 hPa 0,0 l/m 0 min 2 min 0 W/m 14,6 km/h (3 Bft)
14.08.2015 02:12 22,1 C 18,3 C 85 % 15 lf 1008,7 hPa 0,0 l/m 0 min 2 min 0 W/m 14,6 km/h (3 Bft)
14.08.2015 02:14 22,0 C 18,3 C 85 % 15 lf 1008,8 hPa 0,0 l/m 0 min 2 min 0 W/m 10,5 km/h (2 Bft)
14.08.2015 02:16 21,9 C 18,3 C 86 % 15 lf 1008,9 hPa 0,2 l/m 0 min 2 min 0 W/m 10,5 km/h (2 Bft)
14.08.2015 02:18 21,8 C 18,3 C 86 % 15 lf 1009,0 hPa 0,0 l/m 0 min 2 min 0 W/m 12,6 km/h (3 Bft)
14.08.2015 02:20 21,7 C 18,3 C 86 % 15 lf 1009,1 hPa 0,0 l/m 0 min 2 min 0 W/m 8,4 km/h (2 Bft)
14.08.2015 02:22 21,7 C 18,3 C 86 % 15 lf 1009,1 hPa 0,0 l/m 0 min 2 min 0 W/m 10,5 km/h (2 Bft)
14.08.2015 02:24 21,6 C 18,3 C 87 % 15 lf 1009,1 hPa 0,0 l/m 0 min 2 min 0 W/m 10,5 km/h (2 Bft)
14.08.2015 02:26 21,5 C 18,3 C 87 % 15 lf 1009,1 hPa 0,0 l/m 0 min 0 min 0 W/m 12,6 km/h (3 Bft)
14.08.2015 02:28 21,4 C 18,3 C 87 % 15 lf 1009,1 hPa 0,0 l/m 0 min 2 min 0 W/m 8,4 km/h (2 Bft)
14.08.2015 02:30 21,4 C 18,3 C 87 % 15 lf 1009,0 hPa 0,0 l/m 0 min 2 min 0 W/m 12,6 km/h (3 Bft)
14.08.2015 02:32 21,3 C 17,8 C 87 % 15 lf 1009,0 hPa 0,0 l/m 0 min 2 min 0 W/m 10,5 km/h (2 Bft)
14.08.2015 02:34 21,3 C 17,8 C 87 % 15 lf 1009,0 hPa 0,0 l/m 0 min 2 min 0 W/m 10,5 km/h (2 Bft)
14.08.2015 02:36 21,2 C 17,8 C 88 % 15 lf 1008,9 hPa 0,2 l/m 0 min 2 min 0 W/m 6,3 km/h (2 Bft)
14.08.2015 02:38 21,2 C 18,3 C 88 % 15 lf 1008,8 hPa 0,2 l/m 0 min 2 min 0 W/m 10,5 km/h (2 Bft)
14.08.2015 02:40 21,2 C 18,3 C 88 % 15 lf 1008,8 hPa 0,0 l/m 0 min 2 min 0 W/m 6,3 km/h (2 Bft)
14.08.2015 02:42 21,1 C 18,3 C 88 % 15 lf 1009,0 hPa 0,2 l/m 0 min 2 min 0 W/m 6,3 km/h (2 Bft)
14.08.2015 02:44 21,1 C 18,3 C 88 % 15 lf 1009,0 hPa 0,0 l/m 0 min 2 min 0 W/m 4,2 km/h (1 Bft)
14.08.2015 02:46 21,0 C 18,3 C 88 % 15 lf 1009,1 hPa 0,0 l/m 0 min 2 min 0 W/m 4,2 km/h (1 Bft)
14.08.2015 02:48 21,0 C 18,3 C 89 % 15 lf 1009,1 hPa 0,0 l/m 0 min 2 min 0 W/m 6,3 km/h (2 Bft)
14.08.2015 02:50 21,0 C 18,3 C 89 % 15 lf 1009,2 hPa 0,0 l/m 0 min 2 min 0 W/m 6,3 km/h (2 Bft)
14.08.2015 02:52 21,0 C 18,3 C 89 % 15 lf 1009,3 hPa 0,2 l/m 0 min 2 min 0 W/m 12,6 km/h (3 Bft)
14.08.2015 02:54 20,9 C 18,3 C 89 % 15 lf 1009,5 hPa 0,0 l/m 0 min 2 min 0 W/m 14,6 km/h (3 Bft)
14.08.2015 02:56 20,9 C 18,3 C 90 % 15 lf 1009,5 hPa 0,0 l/m 0 min 2 min 0 W/m 23,0 km/h (4 Bft)
14.08.2015 02:58 20,8 C 18,3 C 90 % 15 lf 1009,6 hPa 0,0 l/m 0 min 0 min 0 W/m 25,1 km/h (4 Bft)
14.08.2015 03:00 20,8 C 18,3 C 90 % 15 lf 1009,3 hPa 0,0 l/m 0 min 0 min 0 W/m 16,7 km/h (3 Bft)
14.08.2015 03:02 20,7 C 18,3 C 90 % 15 lf 1009,1 hPa 0,0 l/m 0 min 0 min 0 W/m 20,9 km/h (4 Bft)
14.08.2015 03:04 20,7 C 18,3 C 90 % 15 lf 1009,1 hPa 0,0 l/m 0 min 0 min 0 W/m 16,7 km/h (3 Bft)
14.08.2015 03:06 20,6 C 18,3 C 91 % 15 lf 1009,1 hPa 0,0 l/m 0 min 0 min 0 W/m 20,9 km/h (4 Bft)
14.08.2015 03:08 20,6 C 18,3 C 91 % 15 lf 1009,0 hPa 0,0 l/m 0 min 0 min 0 W/m 14,6 km/h (3 Bft)
14.08.2015 03:10 20,6 C 18,3 C 91 % 15 lf 1009,0 hPa 0,0 l/m 0 min 0 min 0 W/m 14,6 km/h (3 Bft)
14.08.2015 03:12 20,5 C 18,3 C 91 % 15 lf 1008,8 hPa 0,0 l/m 0 min 0 min 0 W/m 20,9 km/h (4 Bft)
14.08.2015 03:14 20,5 C 18,3 C 92 % 15 lf 1008,9 hPa 0,0 l/m 0 min 0 min 0 W/m 16,7 km/h (3 Bft)
14.08.2015 03:16 20,4 C 18,3 C 92 % 15 lf 1008,7 hPa 0,0 l/m 0 min 0 min 0 W/m 14,6 km/h (3 Bft)
14.08.2015 03:18 20,4 C 18,3 C 92 % 15 lf 1008,7 hPa 0,0 l/m 0 min 0 min 0 W/m 23,0 km/h (4 Bft)
14.08.2015 03:20 20,4 C 18,3 C 92 % 15 lf 1008,7 hPa 0,0 l/m 0 min 0 min 0 W/m 14,6 km/h (3 Bft)
14.08.2015 03:22 20,4 C 18,3 C 92 % 15 lf 1008,7 hPa 0,0 l/m 0 min 0 min 0 W/m 14,6 km/h (3 Bft)
14.08.2015 03:24 20,4 C 18,3 C 92 % 15 lf 1008,7 hPa 0,0 l/m 0 min 0 min 0 W/m 20,9 km/h (4 Bft)
14.08.2015 03:26 20,4 C 18,3 C 92 % 15 lf 1008,7 hPa 0,0 l/m 0 min 0 min 0 W/m 8,4 km/h (2 Bft)
14.08.2015 03:28 20,4 C 18,3 C 92 % 15 lf 1008,8 hPa 0,0 l/m 0 min 0 min 0 W/m 8,4 km/h (2 Bft)
14.08.2015 03:30 20,4 C 18,3 C 92 % 15 lf 1008,9 hPa 0,0 l/m 0 min 0 min 0 W/m 12,6 km/h (3 Bft)
14.08.2015 03:32 20,4 C 18,3 C 92 % 15 lf 1008,8 hPa 0,0 l/m 0 min 0 min 0 W/m 8,4 km/h (2 Bft)
14.08.2015 03:34 20,3 C 18,3 C 93 % 15 lf 1008,7 hPa 0,0 l/m 0 min 0 min 0 W/m 6,3 km/h (2 Bft)
14.08.2015 03:36 20,3 C 18,3 C 93 % 15 lf 1008,7 hPa 0,0 l/m 0 min 0 min 0 W/m 8,4 km/h (2 Bft)
14.08.2015 03:38 20,3 C 18,3 C 93 % 15 lf 1008,6 hPa 0,0 l/m 0 min 0 min 0 W/m 8,4 km/h (2 Bft)
14.08.2015 03:40 20,3 C 18,3 C 93 % 15 lf 1008,5 hPa 0,0 l/m 0 min 0 min 0 W/m 6,3 km/h (2 Bft)
14.08.2015 03:42 20,3 C 18,3 C 93 % 15 lf 1008,4 hPa 0,0 l/m 0 min 0 min 0 W/m 6,3 km/h (2 Bft)
14.08.2015 03:44 20,3 C 18,3 C 93 % 15 lf 1008,4 hPa 0,0 l/m 0 min 0 min 0 W/m 4,2 km/h (1 Bft)
14.08.2015 03:46 20,3 C 18,3 C 93 % 15 lf 1008,5 hPa 0,0 l/m 0 min 0 min 0 W/m 8,4 km/h (2 Bft)
14.08.2015 03:48 20,3 C 17,8 C 93 % 15 lf 1008,5 hPa 0,0 l/m 0 min 0 min 0 W/m 4,2 km/h (1 Bft)
14.08.2015 03:50 20,3 C 17,8 C 93 % 15 lf 1008,6 hPa 0,0 l/m 0 min 0 min 0 W/m 4,2 km/h (1 Bft)
14.08.2015 03:52 20,3 C 17,8 C 93 % 15 lf 1008,6 hPa 0,0 l/m 0 min 0 min 0 W/m 4,2 km/h (1 Bft)
14.08.2015 03:54 20,3 C 17,8 C 93 % 15 lf 1008,6 hPa 0,0 l/m 0 min 0 min 0 W/m 4,2 km/h (1 Bft)
14.08.2015 03:56 20,2 C 17,8 C 93 % 15 lf 1008,6 hPa 0,0 l/m 0 min 0 min 0 W/m 4,2 km/h (1 Bft)
14.08.2015 03:58 20,2 C 17,8 C 93 % 15 lf 1008,6 hPa 0,0 l/m 0 min 0 min 0 W/m 2,1 km/h (1 Bft)
14.08.2015 04:00 20,2 C 17,8 C 93 % 15 lf 1008,6 hPa 0,0 l/m 0 min 0 min 0 W/m 6,3 km/h (2 Bft)
14.08.2015 04:02 20,2 C 17,8 C 93 % 15 lf 1008,7 hPa 0,0 l/m 0 min 0 min 0 W/m 4,2 km/h (1 Bft)
14.08.2015 04:04 20,2 C 18,3 C 93 % 15 lf 1008,7 hPa 0,0 l/m 0 min 0 min 0 W/m 4,2 km/h (1 Bft)
14.08.2015 04:06 20,2 C 18,3 C 93 % 15 lf 1008,6 hPa 0,0 l/m 0 min 0 min 0 W/m 8,4 km/h (2 Bft)
14.08.2015 04:08 20,1 C 18,3 C 93 % 15 lf 1008,7 hPa 0,0 l/m 0 min 0 min 0 W/m 6,3 km/h (2 Bft)
14.08.2015 04:10 20,1 C 18,3 C 93 % 15 lf 1008,7 hPa 0,0 l/m 0 min 0 min 0 W/m 6,3 km/h (2 Bft)
14.08.2015 04:12 20,1 C 18,3 C 93 % 15 lf 1008,8 hPa 0,0 l/m 0 min 0 min 0 W/m 8,4 km/h (2 Bft)
14.08.2015 04:14 20,1 C 18,3 C 93 % 15 lf 1008,7 hPa 0,0 l/m 0 min 0 min 0 W/m 4,2 km/h (1 Bft)
14.08.2015 04:16 20,1 C 18,3 C 93 % 15 lf 1008,8 hPa 0,0 l/m 0 min 0 min 0 W/m 6,3 km/h (2 Bft)
14.08.2015 04:18 20,1 C 18,3 C 93 % 15 lf 1008,9 hPa 0,0 l/m 0 min 0 min 0 W/m 4,2 km/h (1 Bft)
14.08.2015 04:20 20,1 C 18,3 C 93 % 15 lf 1008,9 hPa 0,0 l/m 0 min 0 min 0 W/m 4,2 km/h (1 Bft)
14.08.2015 04:22 20,1 C 18,3 C 93 % 15 lf 1008,9 hPa 0,0 l/m 0 min 0 min 0 W/m 8,4 km/h (2 Bft)
14.08.2015 04:24 20,1 C 18,3 C 93 % 15 lf 1008,8 hPa 0,0 l/m 0 min 0 min 0 W/m 6,3 km/h (2 Bft)
14.08.2015 04:26 20,1 C 18,3 C 93 % 15 lf 1008,8 hPa 0,0 l/m 0 min 0 min 0 W/m 4,2 km/h (1 Bft)
14.08.2015 04:28 20,1 C 18,3 C 93 % 15 lf 1008,8 hPa 0,0 l/m 0 min 0 min 0 W/m 2,1 km/h (1 Bft)
14.08.2015 04:30 20,1 C 18,3 C 93 % 15 lf 1008,8 hPa 0,0 l/m 0 min 0 min 0 W/m 4,2 km/h (1 Bft)
14.08.2015 04:32 20,0 C 18,3 C 93 % 15 lf 1008,7 hPa 0,0 l/m 0 min 0 min 0 W/m 4,2 km/h (1 Bft)
14.08.2015 04:34 20,0 C 17,8 C 93 % 15 lf 1008,6 hPa 0,0 l/m 0 min 0 min 0 W/m 6,3 km/h (2 Bft)
14.08.2015 04:36 20,0 C 17,8 C 93 % 15 lf 1008,5 hPa 0,0 l/m 0 min 0 min 0 W/m 6,3 km/h (2 Bft)
14.08.2015 04:38 20,0 C 17,8 C 93 % 15 lf 1008,5 hPa 0,0 l/m 0 min 0 min 0 W/m 4,2 km/h (1 Bft)
14.08.2015 04:40 20,0 C 18,3 C 94 % 15 lf 1008,5 hPa 0,0 l/m 0 min 0 min 0 W/m 2,1 km/h (1 Bft)
14.08.2015 04:42 20,0 C 17,8 C 94 % 15 lf 1008,4 hPa 0,0 l/m 0 min 0 min 0 W/m 4,2 km/h (1 Bft)
14.08.2015 04:44 20,0 C 17,8 C 94 % 15 lf 1008,4 hPa 0,0 l/m 0 min 0 min 0 W/m 6,3 km/h (2 Bft)
14.08.2015 04:46 20,0 C 18,3 C 94 % 15 lf 1008,4 hPa 0,0 l/m 0 min 0 min 0 W/m 4,2 km/h (1 Bft)
14.08.2015 04:48 20,0 C 18,3 C 94 % 15 lf 1008,3 hPa 0,0 l/m 0 min 0 min 0 W/m 2,1 km/h (1 Bft)
14.08.2015 04:50 19,9 C 17,8 C 94 % 15 lf 1008,1 hPa 0,0 l/m 0 min 0 min 0 W/m 4,2 km/h (1 Bft)
14.08.2015 04:52 19,9 C 17,8 C 94 % 15 lf 1007,9 hPa 0,0 l/m 0 min 0 min 0 W/m 4,2 km/h (1 Bft)
14.08.2015 04:54 19,9 C 18,3 C 94 % 15 lf 1007,8 hPa 0,0 l/m 0 min 0 min 0 W/m 6,3 km/h (2 Bft)
14.08.2015 04:56 19,9 C 18,3 C 94 % 15 lf 1007,8 hPa 0,0 l/m 0 min 2 min 0 W/m 4,2 km/h (1 Bft)
14.08.2015 04:58 19,9 C 18,3 C 94 % 15 lf 1008,0 hPa 0,0 l/m 0 min 2 min 0 W/m 4,2 km/h (1 Bft)
14.08.2015 05:00 19,9 C 18,3 C 94 % 15 lf 1008,1 hPa 0,0 l/m 0 min 2 min 0 W/m 4,2 km/h (1 Bft)
14.08.2015 05:02 19,9 C 18,3 C 94 % 15 lf 1008,2 hPa 0,0 l/m 0 min 2 min 0 W/m 2,1 km/h (1 Bft)
14.08.2015 05:04 19,9 C 18,3 C 94 % 15 lf 1008,2 hPa 0,0 l/m 0 min 2 min 0 W/m 0,0 km/h (0 Bft)
14.08.2015 05:06 19,9 C 18,3 C 94 % 15 lf 1008,3 hPa 0,0 l/m 0 min 2 min 0 W/m 2,1 km/h (1 Bft)
14.08.2015 05:08 19,9 C 18,3 C 94 % 15 lf 1008,3 hPa 0,0 l/m 0 min 2 min 0 W/m 2,1 km/h (1 Bft)
14.08.2015 05:10 19,9 C 18,3 C 94 % 15 lf 1008,3 hPa 0,0 l/m 0 min 0 min 0 W/m 6,3 km/h (2 Bft)
14.08.2015 05:12 19,9 C 18,3 C 94 % 15 lf 1008,2 hPa 0,0 l/m 0 min 0 min 0 W/m 4,2 km/h (1 Bft)
14.08.2015 05:14 19,9 C 18,3 C 94 % 15 lf 1008,2 hPa 0,0 l/m 0 min 0 min 0 W/m 4,2 km/h (1 Bft)
14.08.2015 05:16 19,9 C 18,3 C 94 % 15 lf 1008,2 hPa 0,0 l/m 0 min 0 min 0 W/m 2,1 km/h (1 Bft)
14.08.2015 05:18 19,9 C 18,3 C 94 % 15 lf 1008,3 hPa 0,0 l/m 0 min 0 min 0 W/m 4,2 km/h (1 Bft)
14.08.2015 05:20 19,9 C 18,3 C 95 % 15 lf 1008,2 hPa 0,0 l/m 0 min 2 min 0 W/m 4,2 km/h (1 Bft)
14.08.2015 05:22 19,9 C 18,3 C 95 % 15 lf 1008,1 hPa 0,0 l/m 0 min 2 min 0 W/m 2,1 km/h (1 Bft)
14.08.2015 05:24 19,9 C 18,3 C 95 % 15 lf 1008,0 hPa 0,0 l/m 0 min 2 min 0 W/m 0,0 km/h (0 Bft)
14.08.2015 05:26 19,9 C 18,3 C 95 % 15 lf 1008,1 hPa 0,0 l/m 0 min 0 min 0 W/m 4,2 km/h (1 Bft)
14.08.2015 05:28 19,9 C 18,3 C 95 % 15 lf 1008,1 hPa 0,0 l/m 0 min 2 min 0 W/m 4,2 km/h (1 Bft)
14.08.2015 05:30 19,9 C 18,3 C 95 % 15 lf 1008,2 hPa 0,0 l/m 0 min 2 min 0 W/m 6,3 km/h (2 Bft)
14.08.2015 05:32 19,9 C 18,3 C 95 % 15 lf 1008,2 hPa 0,0 l/m 0 min 2 min 0 W/m 8,4 km/h (2 Bft)
14.08.2015 05:34 19,9 C 18,3 C 95 % 15 lf 1008,2 hPa 0,0 l/m 0 min 2 min 0 W/m 6,3 km/h (2 Bft)
14.08.2015 05:36 19,9 C 18,3 C 95 % 15 lf 1008,3 hPa 0,0 l/m 0 min 2 min 0 W/m 6,3 km/h (2 Bft)
14.08.2015 05:38 19,9 C 18,3 C 95 % 15 lf 1008,3 hPa 0,0 l/m 0 min 0 min 0 W/m 10,5 km/h (2 Bft)
14.08.2015 05:40 19,9 C 18,3 C 95 % 15 lf 1008,3 hPa 0,0 l/m 0 min 0 min 0 W/m 8,4 km/h (2 Bft)
14.08.2015 05:42 19,9 C 18,3 C 95 % 15 lf 1008,2 hPa 0,0 l/m 0 min 0 min 0 W/m 6,3 km/h (2 Bft)
14.08.2015 05:44 19,9 C 18,3 C 95 % 15 lf 1008,3 hPa 0,0 l/m 0 min 0 min 0 W/m 8,4 km/h (2 Bft)
14.08.2015 05:46 19,9 C 18,3 C 95 % 15 lf 1008,3 hPa 0,0 l/m 0 min 0 min 0 W/m 10,5 km/h (2 Bft)
14.08.2015 05:48 19,8 C 18,3 C 95 % 15 lf 1008,3 hPa 0,0 l/m 0 min 0 min 0 W/m 8,4 km/h (2 Bft)
14.08.2015 05:50 19,8 C 18,3 C 95 % 15 lf 1008,4 hPa 0,0 l/m 0 min 0 min 0 W/m 10,5 km/h (2 Bft)
14.08.2015 05:52 19,8 C 18,3 C 95 % 15 lf 1008,5 hPa 0,0 l/m 0 min 0 min 0 W/m 8,4 km/h (2 Bft)
14.08.2015 05:54 19,8 C 18,3 C 95 % 15 lf 1008,4 hPa 0,0 l/m 0 min 0 min 0 W/m 4,2 km/h (1 Bft)
14.08.2015 05:56 19,8 C 18,3 C 95 % 15 lf 1008,4 hPa 0,0 l/m 0 min 0 min 0 W/m 8,4 km/h (2 Bft)
14.08.2015 05:58 19,8 C 18,3 C 95 % 15 lf 1008,4 hPa 0,0 l/m 0 min 0 min 0 W/m 6,3 km/h (2 Bft)
14.08.2015 06:00 19,8 C 18,3 C 95 % 15 lf 1008,3 hPa 0,0 l/m 0 min 0 min 0 W/m 6,3 km/h (2 Bft)
14.08.2015 06:02 19,8 C 18,3 C 95 % 15 lf 1008,3 hPa 0,0 l/m 0 min 0 min 0 W/m 8,4 km/h (2 Bft)
14.08.2015 06:05 19,8 C 18,3 C 95 % 15 lf 1008,2 hPa 0,0 l/m 0 min 0 min 0 W/m 8,4 km/h (2 Bft)
14.08.2015 06:06 19,8 C 18,3 C 95 % 15 lf 1008,2 hPa 0,0 l/m 0 min 0 min 0 W/m 8,4 km/h (2 Bft)
14.08.2015 06:08 19,8 C 18,3 C 95 % 15 lf 1008,2 hPa 0,0 l/m 0 min 0 min 0 W/m 8,4 km/h (2 Bft)
14.08.2015 06:10 19,8 C 18,3 C 95 % 15 lf 1008,3 hPa 0,0 l/m 0 min 0 min 0 W/m 8,4 km/h (2 Bft)
14.08.2015 06:12 19,8 C 18,3 C 95 % 15 lf 1008,2 hPa 0,0 l/m 0 min 0 min 0 W/m 8,4 km/h (2 Bft)
14.08.2015 06:14 19,8 C 18,3 C 96 % 15 lf 1008,2 hPa 0,0 l/m 0 min 0 min 0 W/m 6,3 km/h (2 Bft)
14.08.2015 06:16 19,8 C 18,3 C 95 % 15 lf 1008,2 hPa 0,0 l/m 0 min 0 min 0 W/m 8,4 km/h (2 Bft)
14.08.2015 06:18 19,8 C 18,3 C 95 % 15 lf 1008,1 hPa 0,0 l/m 0 min 0 min 4 W/m 10,5 km/h (2 Bft)
14.08.2015 06:20 19,8 C 18,3 C 95 % 15 lf 1008,2 hPa 0,0 l/m 0 min 0 min 5 W/m 8,4 km/h (2 Bft)
14.08.2015 06:22 19,8 C 17,8 C 95 % 15 lf 1008,1 hPa 0,0 l/m 0 min 0 min 5 W/m 4,2 km/h (1 Bft)
14.08.2015 06:24 19,8 C 17,8 C 95 % 15 lf 1008,1 hPa 0,0 l/m 0 min 0 min 5 W/m 4,2 km/h (1 Bft)
14.08.2015 06:26 19,8 C 17,8 C 96 % 15 lf 1008,1 hPa 0,0 l/m 0 min 0 min 6 W/m 4,2 km/h (1 Bft)
14.08.2015 06:28 19,8 C 17,8 C 96 % 15 lf 1008,2 hPa 0,0 l/m 0 min 0 min 7 W/m 6,3 km/h (2 Bft)
14.08.2015 06:30 19,8 C 17,8 C 96 % 15 lf 1008,1 hPa 0,0 l/m 0 min 0 min 7 W/m 6,3 km/h (2 Bft)
14.08.2015 06:32 19,8 C 17,8 C 96 % 15 lf 1008,1 hPa 0,0 l/m 0 min 0 min 7 W/m 6,3 km/h (2 Bft)
14.08.2015 06:34 19,8 C 17,8 C 96 % 15 lf 1008,1 hPa 0,0 l/m 0 min 0 min 9 W/m 4,2 km/h (1 Bft)
14.08.2015 06:36 19,8 C 17,8 C 96 % 15 lf 1008,0 hPa 0,0 l/m 0 min 0 min 10 W/m 6,3 km/h (2 Bft)
14.08.2015 06:38 19,8 C 17,8 C 96 % 15 lf 1008,0 hPa 0,0 l/m 0 min 0 min 11 W/m 6,3 km/h (2 Bft)
14.08.2015 06:40 19,7 C 17,8 C 96 % 15 lf 1008,0 hPa 0,0 l/m 0 min 0 min 12 W/m 6,3 km/h (2 Bft)
14.08.2015 06:42 19,7 C 17,8 C 96 % 15 lf 1008,1 hPa 0,0 l/m 0 min 0 min 12 W/m 6,3 km/h (2 Bft)
14.08.2015 06:44 19,7 C 17,8 C 96 % 15 lf 1008,0 hPa 0,0 l/m 0 min 0 min 14 W/m 4,2 km/h (1 Bft)
14.08.2015 06:46 19,7 C 17,8 C 96 % 15 lf 1007,9 hPa 0,0 l/m 0 min 0 min 16 W/m 4,2 km/h (1 Bft)
14.08.2015 06:48 19,7 C 17,8 C 96 % 15 lf 1008,0 hPa 0,0 l/m 0 min 0 min 18 W/m 4,2 km/h (1 Bft)
14.08.2015 06:50 19,7 C 17,8 C 96 % 15 lf 1007,9 hPa 0,0 l/m 0 min 0 min 20 W/m 2,1 km/h (1 Bft)
14.08.2015 06:52 19,7 C 17,8 C 96 % 15 lf 1007,9 hPa 0,0 l/m 0 min 0 min 24 W/m 2,1 km/h (1 Bft)
14.08.2015 06:54 19,7 C 17,8 C 96 % 15 lf 1007,9 hPa 0,0 l/m 0 min 0 min 27 W/m 2,1 km/h (1 Bft)
14.08.2015 06:56 19,7 C 17,8 C 96 % 15 lf 1008,0 hPa 0,0 l/m 0 min 0 min 29 W/m 4,2 km/h (1 Bft)
14.08.2015 06:58 19,6 C 17,8 C 96 % 15 lf 1008,1 hPa 0,0 l/m 0 min 0 min 32 W/m 4,2 km/h (1 Bft)
14.08.2015 07:00 19,6 C 17,8 C 96 % 15 lf 1008,1 hPa 0,0 l/m 0 min 0 min 34 W/m 4,2 km/h (1 Bft)
14.08.2015 07:02 19,6 C 17,8 C 96 % 15 lf 1008,1 hPa 0,0 l/m 0 min 0 min 38 W/m 4,2 km/h (1 Bft)
14.08.2015 07:04 19,6 C 17,8 C 96 % 15 lf 1008,2 hPa 0,0 l/m 0 min 0 min 40 W/m 6,3 km/h (2 Bft)
14.08.2015 07:06 19,7 C 17,8 C 96 % 15 lf 1008,2 hPa 0,0 l/m 0 min 0 min 42 W/m 4,2 km/h (1 Bft)
14.08.2015 07:08 19,7 C 18,3 C 96 % 15 lf 1008,2 hPa 0,0 l/m 0 min 0 min 44 W/m 4,2 km/h (1 Bft)
14.08.2015 07:10 19,7 C 18,3 C 96 % 15 lf 1008,1 hPa 0,0 l/m 0 min 0 min 46 W/m 4,2 km/h (1 Bft)
14.08.2015 07:12 19,7 C 18,3 C 96 % 15 lf 1008,2 hPa 0,0 l/m 0 min 0 min 50 W/m 4,2 km/h (1 Bft)
14.08.2015 07:14 19,7 C 18,3 C 96 % 15 lf 1008,1 hPa 0,0 l/m 0 min 0 min 54 W/m 4,2 km/h (1 Bft)
14.08.2015 07:16 19,7 C 18,3 C 96 % 15 lf 1008,1 hPa 0,0 l/m 0 min 0 min 57 W/m 6,3 km/h (2 Bft)
14.08.2015 07:18 19,7 C 18,3 C 96 % 15 lf 1008,1 hPa 0,0 l/m 0 min 0 min 61 W/m 8,4 km/h (2 Bft)
14.08.2015 07:20 19,7 C 18,3 C 96 % 15 lf 1008,1 hPa 0,0 l/m 0 min 0 min 63 W/m 4,2 km/h (1 Bft)
14.08.2015 07:22 19,7 C 18,3 C 96 % 15 lf 1008,1 hPa 0,0 l/m 0 min 0 min 65 W/m 6,3 km/h (2 Bft)
14.08.2015 07:24 19,7 C 18,3 C 96 % 15 lf 1008,1 hPa 0,0 l/m 0 min 0 min 66 W/m 6,3 km/h (2 Bft)
14.08.2015 07:26 19,7 C 18,3 C 96 % 15 lf 1008,1 hPa 0,0 l/m 0 min 0 min 66 W/m 6,3 km/h (2 Bft)
14.08.2015 07:28 19,7 C 18,3 C 96 % 15 lf 1008,1 hPa 0,0 l/m 0 min 0 min 63 W/m 8,4 km/h (2 Bft)
14.08.2015 07:30 19,7 C 18,3 C 96 % 15 lf 1008,1 hPa 0,0 l/m 0 min 0 min 61 W/m 6,3 km/h (2 Bft)
14.08.2015 07:32 19,8 C 18,3 C 96 % 15 lf 1008,2 hPa 0,0 l/m 0 min 0 min 59 W/m 10,5 km/h (2 Bft)
14.08.2015 07:34 19,8 C 18,3 C 96 % 15 lf 1008,2 hPa 0,0 l/m 0 min 0 min 58 W/m 6,3 km/h (2 Bft)
14.08.2015 07:36 19,8 C 18,3 C 96 % 15 lf 1008,2 hPa 0,0 l/m 0 min 0 min 59 W/m 8,4 km/h (2 Bft)
14.08.2015 07:38 19,8 C 18,3 C 96 % 15 lf 1008,3 hPa 0,0 l/m 0 min 0 min 59 W/m 6,3 km/h (2 Bft)
14.08.2015 07:40 19,8 C 18,3 C 96 % 15 lf 1008,2 hPa 0,0 l/m 0 min 0 min 58 W/m 4,2 km/h (1 Bft)
14.08.2015 07:42 19,8 C 18,9 C 96 % 15 lf 1008,2 hPa 0,0 l/m 0 min 0 min 56 W/m 6,3 km/h (2 Bft)
14.08.2015 07:44 19,8 C 18,3 C 96 % 15 lf 1008,2 hPa 0,0 l/m 0 min 0 min 54 W/m 8,4 km/h (2 Bft)
14.08.2015 07:46 19,9 C 18,9 C 96 % 15 lf 1008,2 hPa 0,0 l/m 0 min 0 min 54 W/m 10,5 km/h (2 Bft)
14.08.2015 07:48 19,9 C 18,3 C 97 % 15 lf 1008,2 hPa 0,0 l/m 0 min 0 min 53 W/m 8,4 km/h (2 Bft)
14.08.2015 07:50 19,9 C 18,3 C 97 % 15 lf 1008,2 hPa 0,0 l/m 0 min 0 min 54 W/m 8,4 km/h (2 Bft)
14.08.2015 07:52 19,9 C 18,3 C 97 % 15 lf 1008,2 hPa 0,0 l/m 0 min 0 min 54 W/m 8,4 km/h (2 Bft)
14.08.2015 07:54 19,9 C 18,3 C 97 % 15 lf 1008,1 hPa 0,0 l/m 0 min 0 min 56 W/m 6,3 km/h (2 Bft)
14.08.2015 07:56 19,9 C 18,3 C 97 % 15 lf 1008,1 hPa 0,0 l/m 0 min 0 min 59 W/m 6,3 km/h (2 Bft)
14.08.2015 07:58 19,9 C 18,3 C 97 % 15 lf 1008,0 hPa 0,0 l/m 0 min 0 min 62 W/m 6,3 km/h (2 Bft)
14.08.2015 08:00 19,9 C 18,3 C 97 % 15 lf 1008,0 hPa 0,0 l/m 0 min 0 min 63 W/m 6,3 km/h (2 Bft)
14.08.2015 08:02 19,9 C 18,9 C 97 % 15 lf 1007,9 hPa 0,0 l/m 0 min 0 min 67 W/m 6,3 km/h (2 Bft)
14.08.2015 08:04 20,0 C 18,3 C 97 % 15 lf 1008,0 hPa 0,0 l/m 0 min 0 min 70 W/m 6,3 km/h (2 Bft)
14.08.2015 08:06 20,0 C 18,3 C 97 % 15 lf 1008,1 hPa 0,0 l/m 0 min 0 min 71 W/m 12,6 km/h (3 Bft)
14.08.2015 08:08 20,0 C 18,3 C 97 % 15 lf 1008,0 hPa 0,0 l/m 0 min 0 min 73 W/m 8,4 km/h (2 Bft)
14.08.2015 08:10 20,0 C 18,3 C 97 % 15 lf 1008,1 hPa 0,0 l/m 0 min 0 min 76 W/m 10,5 km/h (2 Bft)
14.08.2015 08:12 20,0 C 18,9 C 97 % 15 lf 1008,1 hPa 0,0 l/m 0 min 0 min 76 W/m 10,5 km/h (2 Bft)
14.08.2015 08:14 20,1 C 18,3 C 97 % 15 lf 1008,2 hPa 0,0 l/m 0 min 0 min 74 W/m 6,3 km/h (2 Bft)
14.08.2015 08:16 20,1 C 18,9 C 97 % 15 lf 1008,2 hPa 0,0 l/m 0 min 0 min 76 W/m 6,3 km/h (2 Bft)
14.08.2015 08:18 20,1 C 18,9 C 97 % 15 lf 1008,1 hPa 0,0 l/m 0 min 0 min 78 W/m 8,4 km/h (2 Bft)
14.08.2015 08:20 20,1 C 18,9 C 97 % 15 lf 1008,1 hPa 0,0 l/m 0 min 0 min 85 W/m 12,6 km/h (3 Bft)
14.08.2015 08:22 20,1 C 18,9 C 97 % 15 lf 1008,1 hPa 0,0 l/m 0 min 0 min 91 W/m 8,4 km/h (2 Bft)
14.08.2015 08:24 20,1 C 18,9 C 97 % 14 lf 1008,2 hPa 0,0 l/m 0 min 0 min 96 W/m 10,5 km/h (2 Bft)
14.08.2015 08:26 20,1 C 18,9 C 97 % 12 lf 1008,2 hPa 0,0 l/m 0 min 0 min 99 W/m 10,5 km/h (2 Bft)
14.08.2015 08:28 20,1 C 18,9 C 97 % 9 lf 1008,3 hPa 0,0 l/m 0 min 0 min 102 W/m 12,6 km/h (3 Bft)
14.08.2015 08:30 20,1 C 18,9 C 97 % 4 lf 1008,2 hPa 0,0 l/m 0 min 0 min 102 W/m 8,4 km/h (2 Bft)
14.08.2015 08:32 20,1 C 18,9 C 97 % 3 lf 1008,3 hPa 0,0 l/m 0 min 0 min 102 W/m 8,4 km/h (2 Bft)
14.08.2015 08:34 20,1 C 18,9 C 97 % 2 lf 1008,3 hPa 0,0 l/m 0 min 0 min 104 W/m 6,3 km/h (2 Bft)
14.08.2015 08:36 20,2 C 18,9 C 97 % 1 lf 1008,2 hPa 0,0 l/m 0 min 0 min 109 W/m 8,4 km/h (2 Bft)
14.08.2015 08:38 20,2 C 18,9 C 97 % 1 lf 1008,3 hPa 0,0 l/m 0 min 0 min 116 W/m 8,4 km/h (2 Bft)
14.08.2015 08:40 20,2 C 18,9 C 97 % 1 lf 1008,3 hPa 0,0 l/m 0 min 0 min 120 W/m 8,4 km/h (2 Bft)
14.08.2015 08:42 20,2 C 18,9 C 97 % 1 lf 1008,4 hPa 0,0 l/m 0 min 0 min 121 W/m 6,3 km/h (2 Bft)
14.08.2015 08:44 20,2 C 19,4 C 97 % 1 lf 1008,3 hPa 0,0 l/m 0 min 0 min 122 W/m 8,4 km/h (2 Bft)
14.08.2015 08:46 20,3 C 19,4 C 97 % 1 lf 1008,3 hPa 0,0 l/m 0 min 0 min 123 W/m 8,4 km/h (2 Bft)
14.08.2015 08:48 20,3 C 19,4 C 97 % 0 lf 1008,4 hPa 0,0 l/m 0 min 0 min 123 W/m 8,4 km/h (2 Bft)
14.08.2015 08:50 20,3 C 19,4 C 97 % 0 lf 1008,3 hPa 0,0 l/m 0 min 0 min 125 W/m 8,4 km/h (2 Bft)
14.08.2015 08:52 20,4 C 19,4 C 97 % 0 lf 1008,4 hPa 0,0 l/m 0 min 0 min 128 W/m 6,3 km/h (2 Bft)
14.08.2015 08:54 20,4 C 19,4 C 97 % 0 lf 1008,5 hPa 0,0 l/m 0 min 0 min 132 W/m 10,5 km/h (2 Bft)
14.08.2015 08:56 20,4 C 19,4 C 97 % 0 lf 1008,6 hPa 0,0 l/m 0 min 0 min 141 W/m 14,6 km/h (3 Bft)
14.08.2015 08:58 20,5 C 19,4 C 97 % 0 lf 1008,6 hPa 0,0 l/m 0 min 0 min 152 W/m 12,6 km/h (3 Bft)
14.08.2015 09:00 20,5 C 18,9 C 97 % 0 lf 1008,5 hPa 0,0 l/m 0 min 0 min 177 W/m 16,7 km/h (3 Bft)
14.08.2015 09:02 20,5 C 18,9 C 97 % 0 lf 1008,5 hPa 0,0 l/m 0 min 0 min 198 W/m 16,7 km/h (3 Bft)
14.08.2015 09:04 20,5 C 19,4 C 97 % 0 lf 1008,6 hPa 0,0 l/m 2 min 0 min 211 W/m 8,4 km/h (2 Bft)
14.08.2015 09:06 20,5 C 19,4 C 97 % 0 lf 1008,6 hPa 0,0 l/m 2 min 0 min 238 W/m 10,5 km/h (2 Bft)
14.08.2015 09:08 20,5 C 19,4 C 97 % 0 lf 1008,6 hPa 0,0 l/m 2 min 0 min 259 W/m 18,8 km/h (3 Bft)
14.08.2015 09:10 20,6 C 18,9 C 96 % 0 lf 1008,6 hPa 0,0 l/m 2 min 0 min 292 W/m 14,6 km/h (3 Bft)
14.08.2015 09:12 20,6 C 19,4 C 96 % 0 lf 1008,6 hPa 0,0 l/m 2 min 0 min 251 W/m 14,6 km/h (3 Bft)
14.08.2015 09:14 20,6 C 18,9 C 96 % 0 lf 1008,6 hPa 0,0 l/m 0 min 0 min 191 W/m 20,9 km/h (4 Bft)
14.08.2015 09:16 20,6 C 18,9 C 96 % 0 lf 1008,6 hPa 0,0 l/m 0 min 0 min 177 W/m 18,8 km/h (3 Bft)
14.08.2015 09:18 20,6 C 18,9 C 95 % 0 lf 1008,6 hPa 0,0 l/m 0 min 0 min 150 W/m 23,0 km/h (4 Bft)
14.08.2015 09:20 20,6 C 18,9 C 95 % 0 lf 1008,6 hPa 0,0 l/m 0 min 0 min 154 W/m 20,9 km/h (4 Bft)
14.08.2015 09:22 20,7 C 18,9 C 95 % 0 lf 1008,6 hPa 0,0 l/m 0 min 0 min 194 W/m 10,5 km/h (2 Bft)
14.08.2015 09:24 20,7 C 18,9 C 95 % 0 lf 1008,5 hPa 0,0 l/m 0 min 0 min 202 W/m 18,8 km/h (3 Bft)
14.08.2015 09:26 20,7 C 18,9 C 94 % 0 lf 1008,6 hPa 0,0 l/m 2 min 0 min 255 W/m 18,8 km/h (3 Bft)
14.08.2015 09:28 20,8 C 18,9 C 94 % 0 lf 1008,6 hPa 0,0 l/m 2 min 0 min 248 W/m 20,9 km/h (4 Bft)
14.08.2015 09:30 20,9 C 18,9 C 93 % 0 lf 1008,6 hPa 0,0 l/m 2 min 0 min 270 W/m 16,7 km/h (3 Bft)
14.08.2015 09:32 20,9 C 18,9 C 93 % 0 lf 1008,7 hPa 0,0 l/m 2 min 0 min 349 W/m 18,8 km/h (3 Bft)
14.08.2015 09:34 21,0 C 18,9 C 93 % 0 lf 1008,6 hPa 0,0 l/m 2 min 0 min 564 W/m 20,9 km/h (4 Bft)
14.08.2015 09:36 21,1 C 18,9 C 92 % 0 lf 1008,6 hPa 0,0 l/m 2 min 0 min 549 W/m 23,0 km/h (4 Bft)
14.08.2015 09:38 21,2 C 18,9 C 92 % 0 lf 1008,6 hPa 0,0 l/m 2 min 0 min 456 W/m 31,4 km/h (5 Bft)
14.08.2015 09:40 21,3 C 18,9 C 91 % 0 lf 1008,6 hPa 0,0 l/m 2 min 0 min 468 W/m 25,1 km/h (4 Bft)
14.08.2015 09:42 21,4 C 19,4 C 91 % 0 lf 1008,6 hPa 0,0 l/m 2 min 0 min 562 W/m 20,9 km/h (4 Bft)
14.08.2015 09:44 21,6 C 20,0 C 91 % 0 lf 1008,6 hPa 0,0 l/m 2 min 0 min 549 W/m 20,9 km/h (4 Bft)
14.08.2015 09:46 21,7 C 20,0 C 91 % 0 lf 1008,6 hPa 0,0 l/m 2 min 0 min 424 W/m 18,8 km/h (3 Bft)
14.08.2015 09:48 21,9 C 20,0 C 90 % 0 lf 1008,6 hPa 0,0 l/m 2 min 0 min 592 W/m 14,6 km/h (3 Bft)
14.08.2015 09:50 22,0 C 20,0 C 90 % 0 lf 1008,6 hPa 0,0 l/m 2 min 0 min 648 W/m 18,8 km/h (3 Bft)
14.08.2015 09:52 22,1 C 20,0 C 89 % 0 lf 1008,7 hPa 0,0 l/m 2 min 0 min 498 W/m 18,8 km/h (3 Bft)
14.08.2015 09:54 22,1 C 19,4 C 88 % 0 lf 1008,7 hPa 0,0 l/m 2 min 0 min 309 W/m 23,0 km/h (4 Bft)
14.08.2015 09:56 22,2 C 20,0 C 88 % 0 lf 1008,6 hPa 0,0 l/m 2 min 0 min 351 W/m 16,7 km/h (3 Bft)
14.08.2015 09:58 22,2 C 20,0 C 87 % 0 lf 1008,7 hPa 0,0 l/m 2 min 0 min 283 W/m 27,2 km/h (4 Bft)
14.08.2015 10:00 22,3 C 19,4 C 87 % 0 lf 1008,6 hPa 0,0 l/m 0 min 0 min 254 W/m 16,7 km/h (3 Bft)
14.08.2015 10:02 22,3 C 19,4 C 86 % 0 lf 1008,6 hPa 0,0 l/m 2 min 0 min 271 W/m 20,9 km/h (4 Bft)
14.08.2015 10:04 22,3 C 19,4 C 86 % 0 lf 1008,6 hPa 0,0 l/m 2 min 0 min 273 W/m 14,6 km/h (3 Bft)
14.08.2015 10:06 22,3 C 19,4 C 86 % 0 lf 1008,6 hPa 0,0 l/m 0 min 0 min 191 W/m 16,7 km/h (3 Bft)
14.08.2015 10:08 22,3 C 19,4 C 86 % 0 lf 1008,6 hPa 0,0 l/m 0 min 0 min 199 W/m 16,7 km/h (3 Bft)
14.08.2015 10:10 22,3 C 19,4 C 86 % 0 lf 1008,6 hPa 0,0 l/m 0 min 0 min 143 W/m 16,7 km/h (3 Bft)
14.08.2015 10:12 22,3 C 19,4 C 86 % 0 lf 1008,7 hPa 0,0 l/m 0 min 0 min 158 W/m 18,8 km/h (3 Bft)
14.08.2015 10:14 22,3 C 19,4 C 85 % 0 lf 1008,7 hPa 0,0 l/m 0 min 0 min 181 W/m 16,7 km/h (3 Bft)
14.08.2015 10:16 22,3 C 19,4 C 85 % 0 lf 1008,7 hPa 0,0 l/m 0 min 0 min 153 W/m 16,7 km/h (3 Bft)
14.08.2015 10:18 22,3 C 18,9 C 85 % 0 lf 1008,7 hPa 0,0 l/m 0 min 0 min 162 W/m 16,7 km/h (3 Bft)
14.08.2015 10:20 22,2 C 19,4 C 85 % 0 lf 1008,7 hPa 0,0 l/m 0 min 0 min 240 W/m 14,6 km/h (3 Bft)
14.08.2015 10:22 22,2 C 20,0 C 85 % 0 lf 1008,6 hPa 0,0 l/m 2 min 0 min 418 W/m 12,6 km/h (3 Bft)
14.08.2015 10:24 22,3 C 20,6 C 86 % 0 lf 1008,7 hPa 0,0 l/m 2 min 0 min 548 W/m 16,7 km/h (3 Bft)
14.08.2015 10:26 22,4 C 20,0 C 86 % 0 lf 1008,7 hPa 0,0 l/m 2 min 0 min 656 W/m 20,9 km/h (4 Bft)
14.08.2015 10:28 22,4 C 20,0 C 85 % 0 lf 1008,8 hPa 0,0 l/m 2 min 0 min 642 W/m 18,8 km/h (3 Bft)
14.08.2015 10:30 22,5 C 21,1 C 85 % 0 lf 1008,8 hPa 0,0 l/m 2 min 0 min 645 W/m 20,9 km/h (4 Bft)
14.08.2015 10:32 22,6 C 20,6 C 84 % 0 lf 1008,8 hPa 0,0 l/m 2 min 0 min 669 W/m 20,9 km/h (4 Bft)
14.08.2015 10:34 22,7 C 20,6 C 84 % 0 lf 1008,9 hPa 0,0 l/m 2 min 0 min 686 W/m 14,6 km/h (3 Bft)
14.08.2015 10:36 22,8 C 20,0 C 83 % 0 lf 1008,8 hPa 0,0 l/m 2 min 0 min 556 W/m 23,0 km/h (4 Bft)
14.08.2015 10:38 22,8 C 20,0 C 82 % 0 lf 1008,9 hPa 0,0 l/m 0 min 0 min 271 W/m 18,8 km/h (3 Bft)
14.08.2015 10:40 22,8 C 20,0 C 82 % 0 lf 1008,8 hPa 0,0 l/m 0 min 0 min 284 W/m 16,7 km/h (3 Bft)
14.08.2015 10:42 22,9 C 19,4 C 81 % 0 lf 1008,8 hPa 0,0 l/m 0 min 0 min 235 W/m 14,6 km/h (3 Bft)
14.08.2015 10:44 22,9 C 19,4 C 81 % 0 lf 1008,8 hPa 0,0 l/m 0 min 0 min 238 W/m 12,6 km/h (3 Bft)
14.08.2015 10:46 22,9 C 19,4 C 81 % 0 lf 1008,8 hPa 0,0 l/m 0 min 0 min 225 W/m 20,9 km/h (4 Bft)
14.08.2015 10:48 22,9 C 19,4 C 80 % 0 lf 1008,9 hPa 0,0 l/m 0 min 0 min 186 W/m 16,7 km/h (3 Bft)
14.08.2015 10:50 22,9 C 19,4 C 80 % 0 lf 1008,9 hPa 0,0 l/m 0 min 0 min 213 W/m 10,5 km/h (2 Bft)
14.08.2015 10:52 22,9 C 19,4 C 80 % 0 lf 1008,9 hPa 0,0 l/m 0 min 0 min 254 W/m 14,6 km/h (3 Bft)
14.08.2015 10:54 22,9 C 20,0 C 80 % 0 lf 1008,8 hPa 0,0 l/m 0 min 0 min 294 W/m 16,7 km/h (3 Bft)
14.08.2015 10:56 22,9 C 20,0 C 80 % 0 lf 1008,8 hPa 0,0 l/m 2 min 0 min 350 W/m 16,7 km/h (3 Bft)
14.08.2015 10:58 23,0 C 20,6 C 80 % 0 lf 1008,8 hPa 0,0 l/m 2 min 0 min 467 W/m 16,7 km/h (3 Bft)
14.08.2015 11:00 23,1 C 21,1 C 81 % 0 lf 1008,9 hPa 0,0 l/m 2 min 0 min 512 W/m 10,5 km/h (2 Bft)
14.08.2015 11:02 23,2 C 21,1 C 81 % 0 lf 1008,9 hPa 0,0 l/m 2 min 0 min 496 W/m 16,7 km/h (3 Bft)
14.08.2015 11:04 23,2 C 22,2 C 80 % 0 lf 1008,9 hPa 0,0 l/m 2 min 0 min 478 W/m 18,8 km/h (3 Bft)
14.08.2015 11:06 23,3 C 23,3 C 80 % 0 lf 1008,9 hPa 0,0 l/m 2 min 0 min 581 W/m 14,6 km/h (3 Bft)
14.08.2015 11:08 23,4 C 23,3 C 80 % 0 lf 1008,9 hPa 0,0 l/m 2 min 0 min 650 W/m 14,6 km/h (3 Bft)
14.08.2015 11:10 23,6 C 23,3 C 80 % 0 lf 1008,9 hPa 0,0 l/m 2 min 0 min 643 W/m 23,0 km/h (4 Bft)
14.08.2015 11:12 23,7 C 23,3 C 78 % 0 lf 1008,9 hPa 0,0 l/m 2 min 0 min 498 W/m 23,0 km/h (4 Bft)
14.08.2015 11:14 23,7 C 23,3 C 78 % 0 lf 1008,8 hPa 0,0 l/m 2 min 0 min 488 W/m 18,8 km/h (3 Bft)
14.08.2015 11:16 23,8 C 23,3 C 78 % 0 lf 1008,8 hPa 0,0 l/m 2 min 0 min 524 W/m 14,6 km/h (3 Bft)
14.08.2015 11:18 23,9 C 23,3 C 78 % 0 lf 1008,6 hPa 0,0 l/m 2 min 0 min 639 W/m 16,7 km/h (3 Bft)
14.08.2015 11:20 24,0 C 23,3 C 78 % 0 lf 1008,7 hPa 0,0 l/m 2 min 0 min 525 W/m 14,6 km/h (3 Bft)
14.08.2015 11:22 24,1 C 23,3 C 77 % 0 lf 1008,6 hPa 0,0 l/m 2 min 0 min 375 W/m 14,6 km/h (3 Bft)
14.08.2015 11:24 24,1 C 23,3 C 77 % 0 lf 1008,5 hPa 0,0 l/m 2 min 0 min 349 W/m 14,6 km/h (3 Bft)
14.08.2015 11:26 24,2 C 23,3 C 77 % 0 lf 1008,6 hPa 0,0 l/m 2 min 0 min 355 W/m 8,4 km/h (2 Bft)
14.08.2015 11:28 24,2 C 23,3 C 77 % 0 lf 1008,6 hPa 0,0 l/m 0 min 0 min 320 W/m 16,7 km/h (3 Bft)
14.08.2015 11:30 24,2 C 23,3 C 76 % 0 lf 1008,5 hPa 0,0 l/m 0 min 0 min 312 W/m 16,7 km/h (3 Bft)
14.08.2015 11:32 24,3 C 23,3 C 76 % 0 lf 1008,6 hPa 0,0 l/m 2 min 0 min 425 W/m 16,7 km/h (3 Bft)
14.08.2015 11:34 24,3 C 23,3 C 76 % 0 lf 1008,5 hPa 0,0 l/m 2 min 0 min 513 W/m 16,7 km/h (3 Bft)
14.08.2015 11:36 24,3 C 23,3 C 76 % 0 lf 1008,5 hPa 0,0 l/m 2 min 0 min 517 W/m 16,7 km/h (3 Bft)
14.08.2015 11:38 24,4 C 23,9 C 76 % 0 lf 1008,4 hPa 0,0 l/m 2 min 0 min 517 W/m 23,0 km/h (4 Bft)
14.08.2015 11:40 24,6 C 24,4 C 76 % 0 lf 1008,5 hPa 0,0 l/m 2 min 0 min 517 W/m 18,8 km/h (3 Bft)
14.08.2015 11:42 24,6 C 23,9 C 75 % 0 lf 1008,5 hPa 0,0 l/m 2 min 0 min 461 W/m 16,7 km/h (3 Bft)
14.08.2015 11:44 24,6 C 23,9 C 74 % 0 lf 1008,5 hPa 0,0 l/m 2 min 0 min 427 W/m 16,7 km/h (3 Bft)
14.08.2015 11:46 24,7 C 23,3 C 75 % 0 lf 1008,5 hPa 0,0 l/m 2 min 0 min 462 W/m 18,8 km/h (3 Bft)
14.08.2015 11:48 24,7 C 23,9 C 74 % 0 lf 1008,5 hPa 0,0 l/m 2 min 0 min 438 W/m 12,6 km/h (3 Bft)
14.08.2015 11:50 24,7 C 23,9 C 75 % 0 lf 1008,3 hPa 0,0 l/m 2 min 0 min 456 W/m 12,6 km/h (3 Bft)
14.08.2015 11:52 24,7 C 23,9 C 75 % 0 lf 1008,4 hPa 0,0 l/m 2 min 0 min 534 W/m 14,6 km/h (3 Bft)
14.08.2015 11:54 24,7 C 24,4 C 75 % 0 lf 1008,4 hPa 0,0 l/m 2 min 0 min 520 W/m 20,9 km/h (4 Bft)
14.08.2015 11:56 24,8 C 24,4 C 76 % 0 lf 1008,4 hPa 0,0 l/m 2 min 0 min 464 W/m 12,6 km/h (3 Bft)
14.08.2015 11:58 24,8 C 24,4 C 75 % 0 lf 1008,4 hPa 0,0 l/m 2 min 0 min 388 W/m 16,7 km/h (3 Bft)
14.08.2015 12:00 24,8 C 23,9 C 74 % 0 lf 1008,5 hPa 0,0 l/m 2 min 0 min 389 W/m 16,7 km/h (3 Bft)
14.08.2015 12:02 24,8 C 23,9 C 74 % 0 lf 1008,5 hPa 0,0 l/m 0 min 0 min 340 W/m 12,6 km/h (3 Bft)
14.08.2015 12:05 24,9 C 24,4 C 76 % 0 lf 1008,5 hPa 0,0 l/m 2 min 0 min 789 W/m 12,6 km/h (3 Bft)
14.08.2015 12:06 25,0 C 24,4 C 76 % 0 lf 1008,5 hPa 0,0 l/m 1 min 0 min 578 W/m 14,6 km/h (3 Bft)
14.08.2015 12:08 25,1 C 24,4 C 75 % 0 lf 1008,6 hPa 0,0 l/m 2 min 0 min 402 W/m 20,9 km/h (4 Bft)
14.08.2015 12:10 25,1 C 23,9 C 74 % 0 lf 1008,5 hPa 0,0 l/m 0 min 0 min 303 W/m 10,5 km/h (2 Bft)
14.08.2015 12:12 25,1 C 23,9 C 75 % 0 lf 1008,5 hPa 0,0 l/m 0 min 0 min 307 W/m 12,6 km/h (3 Bft)
14.08.2015 12:14 25,1 C 25,0 C 76 % 0 lf 1008,4 hPa 0,0 l/m 0 min 0 min 309 W/m 10,5 km/h (2 Bft)
14.08.2015 12:16 25,2 C 25,0 C 74 % 0 lf 1008,5 hPa 0,0 l/m 0 min 0 min 337 W/m 20,9 km/h (4 Bft)
14.08.2015 12:18 25,3 C 25,0 C 74 % 0 lf 1008,4 hPa 0,0 l/m 0 min 0 min 345 W/m 14,6 km/h (3 Bft)
14.08.2015 12:20 25,4 C 25,6 C 73 % 0 lf 1008,3 hPa 0,0 l/m 2 min 0 min 462 W/m 16,7 km/h (3 Bft)
14.08.2015 12:22 25,6 C 25,6 C 74 % 0 lf 1008,4 hPa 0,0 l/m 2 min 0 min 909 W/m 20,9 km/h (4 Bft)
14.08.2015 12:24 25,7 C 25,6 C 74 % 0 lf 1008,3 hPa 0,0 l/m 2 min 0 min 872 W/m 14,6 km/h (3 Bft)
14.08.2015 12:26 25,8 C 25,6 C 73 % 0 lf 1008,3 hPa 0,0 l/m 2 min 0 min 447 W/m 8,4 km/h (2 Bft)
14.08.2015 12:28 25,9 C 26,1 C 74 % 0 lf 1008,3 hPa 0,0 l/m 2 min 0 min 931 W/m 6,3 km/h (2 Bft)
14.08.2015 12:30 26,1 C 26,1 C 73 % 0 lf 1008,3 hPa 0,0 l/m 2 min 0 min 800 W/m 12,6 km/h (3 Bft)
14.08.2015 12:32 26,3 C 26,1 C 70 % 0 lf 1008,3 hPa 0,0 l/m 2 min 0 min 857 W/m 18,8 km/h (3 Bft)
14.08.2015 12:34 26,4 C 25,6 C 69 % 0 lf 1008,3 hPa 0,0 l/m 2 min 0 min 703 W/m 31,4 km/h (5 Bft)
14.08.2015 12:36 26,4 C 25,6 C 69 % 0 lf 1008,4 hPa 0,0 l/m 0 min 0 min 360 W/m 23,0 km/h (4 Bft)
14.08.2015 12:38 26,4 C 25,6 C 69 % 0 lf 1008,3 hPa 0,0 l/m 2 min 0 min 629 W/m 23,0 km/h (4 Bft)
14.08.2015 12:40 26,4 C 26,1 C 69 % 0 lf 1008,2 hPa 0,0 l/m 2 min 0 min 552 W/m 20,9 km/h (4 Bft)
14.08.2015 12:42 26,5 C 26,1 C 68 % 0 lf 1008,2 hPa 0,0 l/m 2 min 0 min 408 W/m 23,0 km/h (4 Bft)
14.08.2015 12:44 26,6 C 26,1 C 68 % 0 lf 1008,2 hPa 0,0 l/m 2 min 0 min 522 W/m 20,9 km/h (4 Bft)
14.08.2015 12:46 26,6 C 26,1 C 68 % 0 lf 1008,2 hPa 0,0 l/m 2 min 0 min 946 W/m 18,8 km/h (3 Bft)
14.08.2015 12:48 26,7 C 26,1 C 68 % 0 lf 1008,2 hPa 0,0 l/m 2 min 0 min 408 W/m 27,2 km/h (4 Bft)
14.08.2015 12:50 26,8 C 26,1 C 69 % 0 lf 1008,2 hPa 0,0 l/m 2 min 0 min 486 W/m 14,6 km/h (3 Bft)
14.08.2015 12:52 26,8 C 25,6 C 66 % 0 lf 1008,2 hPa 0,0 l/m 2 min 0 min 877 W/m 18,8 km/h (3 Bft)
14.08.2015 12:54 26,8 C 25,0 C 66 % 0 lf 1008,2 hPa 0,0 l/m 0 min 0 min 306 W/m 14,6 km/h (3 Bft)
14.08.2015 12:56 26,8 C 25,0 C 66 % 0 lf 1008,2 hPa 0,0 l/m 2 min 0 min 615 W/m 14,6 km/h (3 Bft)
14.08.2015 12:58 26,8 C 25,0 C 67 % 0 lf 1008,2 hPa 0,0 l/m 0 min 0 min 380 W/m 16,7 km/h (3 Bft)
14.08.2015 13:00 26,7 C 24,4 C 66 % 0 lf 1008,1 hPa 0,0 l/m 0 min 0 min 274 W/m 18,8 km/h (3 Bft)
14.08.2015 13:02 26,7 C 24,4 C 67 % 0 lf 1008,2 hPa 0,0 l/m 0 min 0 min 272 W/m 10,5 km/h (2 Bft)
14.08.2015 13:04 26,6 C 24,4 C 67 % 0 lf 1008,0 hPa 0,0 l/m 0 min 0 min 301 W/m 12,6 km/h (3 Bft)
14.08.2015 13:06 26,6 C 25,0 C 68 % 0 lf 1008,0 hPa 0,0 l/m 2 min 0 min 609 W/m 8,4 km/h (2 Bft)
14.08.2015 13:08 26,6 C 25,0 C 68 % 0 lf 1008,0 hPa 0,0 l/m 2 min 0 min 462 W/m 14,6 km/h (3 Bft)
14.08.2015 13:10 26,6 C 25,6 C 68 % 0 lf 1008,1 hPa 0,0 l/m 2 min 0 min 643 W/m 18,8 km/h (3 Bft)
14.08.2015 13:12 26,5 C 25,6 C 67 % 0 lf 1008,1 hPa 0,0 l/m 2 min 0 min 394 W/m 12,6 km/h (3 Bft)
14.08.2015 13:14 26,6 C 25,6 C 68 % 0 lf 1008,1 hPa 0,0 l/m 2 min 0 min 564 W/m 8,4 km/h (2 Bft)
14.08.2015 13:16 26,6 C 25,6 C 67 % 0 lf 1008,1 hPa 0,0 l/m 2 min 0 min 430 W/m 12,6 km/h (3 Bft)
14.08.2015 13:18 26,6 C 25,6 C 67 % 0 lf 1008,2 hPa 0,0 l/m 2 min 0 min 394 W/m 12,6 km/h (3 Bft)
14.08.2015 13:20 26,6 C 25,6 C 68 % 0 lf 1008,1 hPa 0,0 l/m 2 min 0 min 519 W/m 20,9 km/h (4 Bft)
14.08.2015 13:22 26,6 C 25,6 C 69 % 0 lf 1008,1 hPa 0,0 l/m 2 min 0 min 633 W/m 16,7 km/h (3 Bft)
14.08.2015 13:24 26,7 C 25,6 C 67 % 0 lf 1008,0 hPa 0,0 l/m 2 min 0 min 658 W/m 16,7 km/h (3 Bft)
14.08.2015 13:26 26,7 C 25,6 C 68 % 0 lf 1008,1 hPa 0,0 l/m 2 min 0 min 673 W/m 16,7 km/h (3 Bft)
14.08.2015 13:28 26,8 C 26,1 C 68 % 0 lf 1008,2 hPa 0,0 l/m 2 min 0 min 706 W/m 14,6 km/h (3 Bft)
14.08.2015 13:30 26,9 C 26,1 C 67 % 0 lf 1008,1 hPa 0,0 l/m 2 min 0 min 662 W/m 12,6 km/h (3 Bft)
14.08.2015 13:32 26,9 C 26,1 C 67 % 0 lf 1007,9 hPa 0,0 l/m 2 min 0 min 681 W/m 12,6 km/h (3 Bft)
14.08.2015 13:34 27,1 C 26,7 C 69 % 0 lf 1007,9 hPa 0,0 l/m 2 min 0 min 760 W/m 10,5 km/h (2 Bft)
14.08.2015 13:36 27,2 C 26,7 C 68 % 0 lf 1007,9 hPa 0,0 l/m 2 min 0 min 631 W/m 14,6 km/h (3 Bft)
14.08.2015 13:38 27,2 C 26,7 C 66 % 0 lf 1008,0 hPa 0,0 l/m 2 min 0 min 536 W/m 18,8 km/h (3 Bft)
14.08.2015 13:40 27,3 C 26,7 C 66 % 0 lf 1008,0 hPa 0,0 l/m 2 min 0 min 748 W/m 14,6 km/h (3 Bft)
14.08.2015 13:42 27,3 C 26,1 C 65 % 0 lf 1007,9 hPa 0,0 l/m 2 min 0 min 450 W/m 12,6 km/h (3 Bft)
14.08.2015 13:44 27,3 C 26,1 C 65 % 0 lf 1007,9 hPa 0,0 l/m 2 min 0 min 470 W/m 14,6 km/h (3 Bft)
14.08.2015 13:46 27,3 C 26,7 C 64 % 0 lf 1007,8 hPa 0,0 l/m 2 min 0 min 738 W/m 14,6 km/h (3 Bft)
14.08.2015 13:48 27,3 C 26,1 C 64 % 0 lf 1007,8 hPa 0,0 l/m 2 min 0 min 415 W/m 12,6 km/h (3 Bft)
14.08.2015 13:50 27,3 C 25,6 C 64 % 0 lf 1007,8 hPa 0,0 l/m 0 min 0 min 239 W/m 14,6 km/h (3 Bft)
14.08.2015 13:52 27,3 C 25,6 C 65 % 0 lf 1007,8 hPa 0,0 l/m 0 min 0 min 256 W/m 12,6 km/h (3 Bft)
14.08.2015 13:54 27,3 C 25,6 C 65 % 0 lf 1007,8 hPa 0,0 l/m 2 min 0 min 547 W/m 14,6 km/h (3 Bft)
14.08.2015 13:56 27,3 C 25,6 C 64 % 0 lf 1007,7 hPa 0,0 l/m 0 min 0 min 364 W/m 20,9 km/h (4 Bft)
14.08.2015 13:58 27,3 C 25,6 C 66 % 0 lf 1007,8 hPa 0,0 l/m 2 min 0 min 637 W/m 16,7 km/h (3 Bft)
14.08.2015 14:00 27,3 C 25,6 C 65 % 0 lf 1007,8 hPa 0,0 l/m 2 min 0 min 867 W/m 14,6 km/h (3 Bft)
14.08.2015 14:02 27,3 C 26,1 C 66 % 0 lf 1007,8 hPa 0,0 l/m 2 min 0 min 867 W/m 12,6 km/h (3 Bft)
14.08.2015 14:04 27,3 C 26,1 C 65 % 0 lf 1007,8 hPa 0,0 l/m 2 min 0 min 582 W/m 18,8 km/h (3 Bft)
14.08.2015 14:06 27,4 C 26,1 C 66 % 0 lf 1007,7 hPa 0,0 l/m 0 min 0 min 341 W/m 12,6 km/h (3 Bft)
14.08.2015 14:08 27,5 C 26,1 C 66 % 0 lf 1007,6 hPa 0,0 l/m 0 min 0 min 341 W/m 16,7 km/h (3 Bft)
14.08.2015 14:10 27,6 C 26,1 C 66 % 0 lf 1007,5 hPa 0,0 l/m 0 min 0 min 300 W/m 16,7 km/h (3 Bft)
14.08.2015 14:12 27,6 C 26,1 C 64 % 0 lf 1007,6 hPa 0,0 l/m 0 min 0 min 269 W/m 12,6 km/h (3 Bft)
14.08.2015 14:14 27,7 C 26,1 C 65 % 0 lf 1007,6 hPa 0,0 l/m 2 min 0 min 817 W/m 14,6 km/h (3 Bft)
14.08.2015 14:16 27,8 C 26,7 C 66 % 0 lf 1007,6 hPa 0,0 l/m 2 min 0 min 926 W/m 10,5 km/h (2 Bft)
14.08.2015 14:18 27,9 C 26,7 C 65 % 0 lf 1007,6 hPa 0,0 l/m 2 min 0 min 896 W/m 12,6 km/h (3 Bft)
14.08.2015 14:20 28,0 C 26,7 C 64 % 0 lf 1007,6 hPa 0,0 l/m 2 min 0 min 893 W/m 14,6 km/h (3 Bft)
14.08.2015 14:22 28,1 C 26,7 C 63 % 0 lf 1007,5 hPa 0,0 l/m 2 min 0 min 939 W/m 10,5 km/h (2 Bft)
14.08.2015 14:24 28,2 C 26,7 C 62 % 0 lf 1007,6 hPa 0,0 l/m 2 min 0 min 477 W/m 14,6 km/h (3 Bft)
14.08.2015 14:26 28,2 C 26,1 C 63 % 0 lf 1007,6 hPa 0,0 l/m 0 min 0 min 308 W/m 8,4 km/h (2 Bft)
14.08.2015 14:28 28,2 C 26,1 C 62 % 0 lf 1007,5 hPa 0,0 l/m 0 min 0 min 310 W/m 12,6 km/h (3 Bft)
14.08.2015 14:30 28,2 C 26,1 C 63 % 0 lf 1007,5 hPa 0,0 l/m 0 min 0 min 347 W/m 12,6 km/h (3 Bft)
14.08.2015 14:32 28,2 C 26,1 C 63 % 0 lf 1007,5 hPa 0,0 l/m 2 min 0 min 677 W/m 8,4 km/h (2 Bft)
14.08.2015 14:34 28,2 C 26,7 C 64 % 0 lf 1007,5 hPa 0,0 l/m 2 min 0 min 749 W/m 10,5 km/h (2 Bft)
14.08.2015 14:36 28,3 C 26,7 C 64 % 0 lf 1007,5 hPa 0,0 l/m 2 min 0 min 830 W/m 16,7 km/h (3 Bft)
14.08.2015 14:38 28,4 C 26,7 C 62 % 0 lf 1007,5 hPa 0,0 l/m 2 min 0 min 793 W/m 18,8 km/h (3 Bft)
14.08.2015 14:40 28,5 C 26,7 C 64 % 0 lf 1007,4 hPa 0,0 l/m 2 min 0 min 733 W/m 14,6 km/h (3 Bft)
14.08.2015 14:42 28,6 C 26,7 C 62 % 0 lf 1007,4 hPa 0,0 l/m 0 min 0 min 374 W/m 12,6 km/h (3 Bft)
14.08.2015 14:44 28,6 C 26,1 C 62 % 0 lf 1007,4 hPa 0,0 l/m 0 min 0 min 251 W/m 14,6 km/h (3 Bft)
14.08.2015 14:46 28,6 C 25,6 C 61 % 0 lf 1007,4 hPa 0,0 l/m 0 min 0 min 240 W/m 14,6 km/h (3 Bft)
14.08.2015 14:48 28,4 C 25,6 C 60 % 0 lf 1007,4 hPa 0,0 l/m 0 min 0 min 254 W/m 14,6 km/h (3 Bft)
14.08.2015 14:50 28,4 C 25,6 C 60 % 0 lf 1007,4 hPa 0,0 l/m 0 min 0 min 289 W/m 8,4 km/h (2 Bft)
14.08.2015 14:52 28,3 C 26,1 C 61 % 0 lf 1007,4 hPa 0,0 l/m 0 min 0 min 361 W/m 16,7 km/h (3 Bft)
14.08.2015 14:54 28,3 C 26,1 C 61 % 0 lf 1007,5 hPa 0,0 l/m 2 min 0 min 501 W/m 12,6 km/h (3 Bft)
14.08.2015 14:56 28,3 C 26,7 C 62 % 0 lf 1007,5 hPa 0,0 l/m 2 min 0 min 784 W/m 14,6 km/h (3 Bft)
14.08.2015 14:58 28,3 C 27,8 C 62 % 0 lf 1007,5 hPa 0,0 l/m 2 min 0 min 910 W/m 12,6 km/h (3 Bft)
14.08.2015 15:00 28,4 C 27,8 C 63 % 0 lf 1007,4 hPa 0,0 l/m 2 min 0 min 858 W/m 12,6 km/h (3 Bft)
14.08.2015 15:02 28,4 C 27,8 C 61 % 0 lf 1007,4 hPa 0,0 l/m 2 min 0 min 852 W/m 14,6 km/h (3 Bft)
14.08.2015 15:04 28,5 C 27,8 C 60 % 0 lf 1007,3 hPa 0,0 l/m 2 min 0 min 773 W/m 14,6 km/h (3 Bft)
14.08.2015 15:06 28,6 C 27,8 C 62 % 0 lf 1007,4 hPa 0,0 l/m 2 min 0 min 614 W/m 12,6 km/h (3 Bft)
14.08.2015 15:08 28,6 C 27,8 C 61 % 0 lf 1007,4 hPa 0,0 l/m 0 min 0 min 284 W/m 10,5 km/h (2 Bft)
14.08.2015 15:10 28,7 C 27,2 C 61 % 0 lf 1007,3 hPa 0,0 l/m 0 min 0 min 322 W/m 23,0 km/h (4 Bft)
14.08.2015 15:12 28,6 C 26,7 C 58 % 0 lf 1007,3 hPa 0,0 l/m 2 min 0 min 390 W/m 27,2 km/h (4 Bft)
14.08.2015 15:14 28,6 C 26,7 C 60 % 0 lf 1007,2 hPa 0,0 l/m 0 min 0 min 319 W/m 14,6 km/h (3 Bft)
14.08.2015 15:16 28,5 C 26,1 C 59 % 0 lf 1007,2 hPa 0,0 l/m 0 min 0 min 306 W/m 12,6 km/h (3 Bft)
14.08.2015 15:18 28,4 C 26,1 C 60 % 0 lf 1007,2 hPa 0,0 l/m 0 min 0 min 282 W/m 12,6 km/h (3 Bft)
14.08.2015 15:20 28,4 C 26,1 C 61 % 0 lf 1007,2 hPa 0,0 l/m 0 min 0 min 274 W/m 6,3 km/h (2 Bft)
14.08.2015 15:22 28,3 C 26,1 C 61 % 0 lf 1007,2 hPa 0,0 l/m 0 min 0 min 327 W/m 18,8 km/h (3 Bft)
14.08.2015 15:24 28,3 C 26,7 C 60 % 0 lf 1007,2 hPa 0,0 l/m 2 min 0 min 448 W/m 20,9 km/h (4 Bft)
14.08.2015 15:26 28,2 C 27,2 C 60 % 0 lf 1007,2 hPa 0,0 l/m 2 min 0 min 539 W/m 14,6 km/h (3 Bft)
14.08.2015 15:28 28,3 C 27,8 C 62 % 0 lf 1007,2 hPa 0,0 l/m 2 min 0 min 934 W/m 12,6 km/h (3 Bft)
14.08.2015 15:30 28,3 C 28,3 C 62 % 0 lf 1007,0 hPa 0,0 l/m 2 min 0 min 939 W/m 12,6 km/h (3 Bft)
14.08.2015 15:32 28,4 C 27,8 C 63 % 0 lf 1007,0 hPa 0,0 l/m 2 min 0 min 763 W/m 12,6 km/h (3 Bft)
14.08.2015 15:34 28,6 C 27,8 C 62 % 0 lf 1006,9 hPa 0,0 l/m 2 min 0 min 482 W/m 14,6 km/h (3 Bft)
14.08.2015 15:36 28,6 C 27,2 C 60 % 0 lf 1006,8 hPa 0,0 l/m 2 min 0 min 393 W/m 14,6 km/h (3 Bft)
14.08.2015 15:38 28,6 C 27,2 C 61 % 0 lf 1006,9 hPa 0,0 l/m 0 min 0 min 330 W/m 16,7 km/h (3 Bft)
14.08.2015 15:40 28,6 C 26,7 C 60 % 0 lf 1006,9 hPa 0,0 l/m 2 min 0 min 432 W/m 23,0 km/h (4 Bft)
14.08.2015 15:42 28,5 C 26,1 C 60 % 0 lf 1006,9 hPa 0,0 l/m 2 min 0 min 408 W/m 23,0 km/h (4 Bft)
14.08.2015 15:44 28,4 C 26,1 C 60 % 0 lf 1006,9 hPa 0,0 l/m 2 min 0 min 427 W/m 14,6 km/h (3 Bft)
14.08.2015 15:46 28,4 C 26,1 C 59 % 0 lf 1006,8 hPa 0,0 l/m 0 min 0 min 295 W/m 12,6 km/h (3 Bft)
14.08.2015 15:48 28,3 C 26,1 C 59 % 0 lf 1006,8 hPa 0,0 l/m 0 min 0 min 231 W/m 16,7 km/h (3 Bft)
14.08.2015 15:50 28,2 C 26,1 C 60 % 0 lf 1006,8 hPa 0,0 l/m 0 min 0 min 283 W/m 8,4 km/h (2 Bft)
14.08.2015 15:52 28,2 C 26,1 C 61 % 0 lf 1006,8 hPa 0,0 l/m 2 min 0 min 428 W/m 8,4 km/h (2 Bft)
14.08.2015 15:54 28,2 C 26,1 C 60 % 0 lf 1006,8 hPa 0,0 l/m 0 min 0 min 309 W/m 10,5 km/h (2 Bft)
14.08.2015 15:56 28,2 C 26,1 C 61 % 0 lf 1006,8 hPa 0,0 l/m 2 min 0 min 376 W/m 4,2 km/h (1 Bft)
14.08.2015 15:58 28,2 C 26,1 C 60 % 0 lf 1006,8 hPa 0,0 l/m 0 min 0 min 253 W/m 12,6 km/h (3 Bft)
14.08.2015 16:00 28,2 C 26,1 C 60 % 0 lf 1006,8 hPa 0,0 l/m 0 min 0 min 241 W/m 8,4 km/h (2 Bft)
14.08.2015 16:02 28,1 C 25,6 C 61 % 0 lf 1006,7 hPa 0,0 l/m 0 min 0 min 207 W/m 10,5 km/h (2 Bft)
14.08.2015 16:04 28,1 C 25,6 C 60 % 0 lf 1006,7 hPa 0,0 l/m 0 min 0 min 205 W/m 8,4 km/h (2 Bft)
14.08.2015 16:06 28,0 C 25,6 C 61 % 0 lf 1006,7 hPa 0,0 l/m 0 min 0 min 212 W/m 6,3 km/h (2 Bft)
14.08.2015 16:08 27,9 C 25,6 C 60 % 0 lf 1006,7 hPa 0,0 l/m 0 min 0 min 198 W/m 6,3 km/h (2 Bft)
14.08.2015 16:10 27,9 C 25,6 C 61 % 0 lf 1006,7 hPa 0,0 l/m 0 min 0 min 176 W/m 6,3 km/h (2 Bft)
14.08.2015 16:12 27,8 C 25,6 C 62 % 0 lf 1006,6 hPa 0,0 l/m 0 min 0 min 163 W/m 8,4 km/h (2 Bft)
14.08.2015 16:14 27,8 C 25,6 C 63 % 0 lf 1006,6 hPa 0,0 l/m 0 min 0 min 159 W/m 6,3 km/h (2 Bft)
14.08.2015 16:16 27,8 C 25,6 C 62 % 0 lf 1006,6 hPa 0,0 l/m 0 min 0 min 156 W/m 10,5 km/h (2 Bft)
14.08.2015 16:18 27,7 C 25,0 C 62 % 0 lf 1006,6 hPa 0,0 l/m 0 min 0 min 157 W/m 8,4 km/h (2 Bft)
14.08.2015 16:20 27,7 C 25,0 C 62 % 0 lf 1006,6 hPa 0,0 l/m 0 min 0 min 157 W/m 8,4 km/h (2 Bft)
14.08.2015 16:22 27,6 C 25,0 C 62 % 0 lf 1006,6 hPa 0,0 l/m 0 min 0 min 163 W/m 10,5 km/h (2 Bft)
14.08.2015 16:24 27,6 C 25,0 C 62 % 0 lf 1006,6 hPa 0,0 l/m 0 min 0 min 160 W/m 8,4 km/h (2 Bft)
14.08.2015 16:26 27,5 C 25,0 C 63 % 0 lf 1006,6 hPa 0,0 l/m 0 min 0 min 157 W/m 6,3 km/h (2 Bft)
14.08.2015 16:28 27,4 C 25,0 C 62 % 0 lf 1006,6 hPa 0,0 l/m 0 min 0 min 172 W/m 10,5 km/h (2 Bft)
14.08.2015 16:30 27,4 C 25,0 C 62 % 0 lf 1006,6 hPa 0,0 l/m 0 min 0 min 201 W/m 10,5 km/h (2 Bft)
14.08.2015 16:32 27,3 C 25,6 C 62 % 0 lf 1006,6 hPa 0,0 l/m 0 min 0 min 217 W/m 10,5 km/h (2 Bft)
14.08.2015 16:34 27,3 C 25,6 C 64 % 0 lf 1006,6 hPa 0,0 l/m 0 min 0 min 235 W/m 12,6 km/h (3 Bft)
14.08.2015 16:36 27,3 C 25,6 C 63 % 0 lf 1006,6 hPa 0,0 l/m 0 min 0 min 268 W/m 16,7 km/h (3 Bft)
14.08.2015 16:38 27,2 C 26,1 C 63 % 0 lf 1006,6 hPa 0,0 l/m 2 min 0 min 309 W/m 16,7 km/h (3 Bft)
14.08.2015 16:40 27,2 C 26,1 C 63 % 0 lf 1006,6 hPa 0,0 l/m 2 min 0 min 487 W/m 12,6 km/h (3 Bft)
14.08.2015 16:42 27,2 C 26,1 C 63 % 0 lf 1006,6 hPa 0,0 l/m 0 min 0 min 210 W/m 16,7 km/h (3 Bft)
14.08.2015 16:44 27,2 C 25,6 C 62 % 0 lf 1006,5 hPa 0,0 l/m 0 min 0 min 167 W/m 18,8 km/h (3 Bft)
14.08.2015 16:46 27,2 C 25,6 C 62 % 0 lf 1006,5 hPa 0,0 l/m 0 min 0 min 149 W/m 14,6 km/h (3 Bft)
14.08.2015 16:48 27,2 C 25,6 C 62 % 0 lf 1006,5 hPa 0,0 l/m 0 min 0 min 149 W/m 12,6 km/h (3 Bft)
14.08.2015 16:50 27,2 C 25,0 C 63 % 0 lf 1006,5 hPa 0,0 l/m 0 min 0 min 142 W/m 16,7 km/h (3 Bft)
14.08.2015 16:52 27,1 C 25,0 C 63 % 0 lf 1006,6 hPa 0,0 l/m 0 min 0 min 131 W/m 12,6 km/h (3 Bft)
14.08.2015 16:54 27,1 C 24,4 C 62 % 0 lf 1006,4 hPa 0,0 l/m 0 min 0 min 114 W/m 14,6 km/h (3 Bft)
14.08.2015 16:56 27,1 C 24,4 C 62 % 0 lf 1006,4 hPa 0,0 l/m 0 min 0 min 102 W/m 16,7 km/h (3 Bft)
14.08.2015 16:58 27,0 C 24,4 C 62 % 0 lf 1006,4 hPa 0,0 l/m 0 min 0 min 97 W/m 14,6 km/h (3 Bft)
14.08.2015 17:00 26,9 C 24,4 C 63 % 0 lf 1006,4 hPa 0,0 l/m 0 min 0 min 100 W/m 12,6 km/h (3 Bft)
14.08.2015 17:02 26,8 C 24,4 C 63 % 0 lf 1006,4 hPa 0,0 l/m 0 min 0 min 114 W/m 12,6 km/h (3 Bft)
14.08.2015 17:04 26,8 C 24,4 C 64 % 0 lf 1006,4 hPa 0,0 l/m 0 min 0 min 119 W/m 8,4 km/h (2 Bft)
14.08.2015 17:06 26,8 C 24,4 C 64 % 0 lf 1006,4 hPa 0,0 l/m 0 min 0 min 105 W/m 10,5 km/h (2 Bft)
14.08.2015 17:08 26,7 C 24,4 C 63 % 0 lf 1006,4 hPa 0,0 l/m 0 min 0 min 89 W/m 14,6 km/h (3 Bft)
14.08.2015 17:10 26,7 C 24,4 C 63 % 0 lf 1006,3 hPa 0,0 l/m 0 min 0 min 77 W/m 14,6 km/h (3 Bft)
14.08.2015 17:12 26,6 C 24,4 C 64 % 0 lf 1006,3 hPa 0,0 l/m 0 min 0 min 71 W/m 12,6 km/h (3 Bft)
14.08.2015 17:14 26,6 C 23,9 C 64 % 0 lf 1006,3 hPa 0,0 l/m 0 min 0 min 70 W/m 10,5 km/h (2 Bft)
14.08.2015 17:16 26,6 C 23,9 C 64 % 0 lf 1006,4 hPa 0,0 l/m 0 min 0 min 69 W/m 10,5 km/h (2 Bft)
14.08.2015 17:18 26,5 C 23,9 C 65 % 0 lf 1006,4 hPa 0,0 l/m 0 min 0 min 70 W/m 10,5 km/h (2 Bft)
14.08.2015 17:20 26,4 C 23,9 C 65 % 0 lf 1006,5 hPa 0,0 l/m 0 min 0 min 75 W/m 14,6 km/h (3 Bft)
14.08.2015 17:22 26,4 C 23,9 C 64 % 0 lf 1006,4 hPa 0,0 l/m 0 min 0 min 82 W/m 16,7 km/h (3 Bft)
14.08.2015 17:24 26,3 C 23,9 C 64 % 0 lf 1006,4 hPa 0,0 l/m 0 min 0 min 95 W/m 12,6 km/h (3 Bft)
14.08.2015 17:26 26,3 C 23,9 C 64 % 0 lf 1006,5 hPa 0,0 l/m 0 min 0 min 119 W/m 12,6 km/h (3 Bft)
14.08.2015 17:28 26,3 C 23,9 C 65 % 0 lf 1006,5 hPa 0,0 l/m 0 min 0 min 124 W/m 12,6 km/h (3 Bft)
14.08.2015 17:30 26,2 C 23,9 C 65 % 0 lf 1006,6 hPa 0,0 l/m 0 min 0 min 114 W/m 27,2 km/h (4 Bft)
14.08.2015 17:32 26,2 C 23,9 C 66 % 0 lf 1006,5 hPa 0,0 l/m 0 min 0 min 131 W/m 18,8 km/h (3 Bft)
14.08.2015 17:34 26,1 C 23,9 C 67 % 0 lf 1006,5 hPa 0,0 l/m 0 min 0 min 156 W/m 12,6 km/h (3 Bft)
14.08.2015 17:36 26,1 C 23,9 C 67 % 4 lf 1006,4 hPa 0,0 l/m 0 min 0 min 159 W/m 16,7 km/h (3 Bft)
14.08.2015 17:38 26,1 C 23,9 C 68 % 0 lf 1006,3 hPa 0,0 l/m 0 min 2 min 170 W/m 14,6 km/h (3 Bft)
14.08.2015 17:40 26,0 C 23,9 C 68 % 0 lf 1006,3 hPa 0,0 l/m 0 min 2 min 186 W/m 12,6 km/h (3 Bft)
14.08.2015 17:42 26,0 C 23,9 C 69 % 0 lf 1006,3 hPa 0,0 l/m 0 min 0 min 194 W/m 10,5 km/h (2 Bft)
14.08.2015 17:44 26,0 C 23,9 C 69 % 0 lf 1006,4 hPa 0,0 l/m 0 min 0 min 193 W/m 10,5 km/h (2 Bft)
14.08.2015 17:46 25,9 C 24,4 C 70 % 0 lf 1006,4 hPa 0,0 l/m 0 min 0 min 202 W/m 10,5 km/h (2 Bft)
14.08.2015 17:48 25,9 C 24,4 C 70 % 0 lf 1006,4 hPa 0,0 l/m 0 min 0 min 207 W/m 8,4 km/h (2 Bft)
14.08.2015 17:50 25,9 C 24,4 C 70 % 0 lf 1006,4 hPa 0,0 l/m 0 min 0 min 160 W/m 8,4 km/h (2 Bft)
14.08.2015 17:52 25,9 C 24,4 C 70 % 0 lf 1006,5 hPa 0,0 l/m 0 min 0 min 132 W/m 10,5 km/h (2 Bft)
14.08.2015 17:54 25,9 C 23,9 C 70 % 0 lf 1006,5 hPa 0,0 l/m 0 min 0 min 132 W/m 8,4 km/h (2 Bft)
14.08.2015 17:56 25,8 C 23,9 C 70 % 0 lf 1006,5 hPa 0,0 l/m 0 min 0 min 127 W/m 6,3 km/h (2 Bft)
14.08.2015 17:58 25,8 C 23,9 C 70 % 0 lf 1006,5 hPa 0,0 l/m 0 min 0 min 129 W/m 4,2 km/h (1 Bft)
14.08.2015 18:00 25,8 C 23,3 C 70 % 0 lf 1006,5 hPa 0,0 l/m 0 min 0 min 154 W/m 4,2 km/h (1 Bft)
14.08.2015 18:02 25,8 C 23,3 C 70 % 0 lf 1006,5 hPa 0,0 l/m 0 min 0 min 187 W/m 6,3 km/h (2 Bft)
14.08.2015 18:05 25,7 C 23,9 C 71 % 0 lf 1006,4 hPa 0,0 l/m 2 min 0 min 234 W/m 6,3 km/h (2 Bft)
14.08.2015 18:07 25,7 C 23,9 C 71 % 0 lf 1006,4 hPa 0,0 l/m 2 min 0 min 281 W/m 6,3 km/h (2 Bft)
14.08.2015 18:10 25,7 C 24,4 C 71 % 0 lf 1006,5 hPa 0,0 l/m 2 min 0 min 211 W/m 8,4 km/h (2 Bft)
14.08.2015 18:12 25,6 C 24,4 C 71 % 0 lf 1006,5 hPa 0,0 l/m 0 min 0 min 184 W/m 6,3 km/h (2 Bft)
14.08.2015 18:14 25,6 C 24,4 C 72 % 0 lf 1006,5 hPa 0,0 l/m 0 min 0 min 167 W/m 6,3 km/h (2 Bft)
14.08.2015 18:16 25,6 C 24,4 C 72 % 0 lf 1006,5 hPa 0,0 l/m 0 min 0 min 146 W/m 10,5 km/h (2 Bft)
14.08.2015 18:18 25,6 C 24,4 C 72 % 0 lf 1006,5 hPa 0,0 l/m 0 min 0 min 125 W/m 10,5 km/h (2 Bft)
14.08.2015 18:20 25,6 C 23,9 C 71 % 0 lf 1006,5 hPa 0,0 l/m 0 min 0 min 114 W/m 12,6 km/h (3 Bft)
14.08.2015 18:22 25,5 C 23,9 C 70 % 0 lf 1006,4 hPa 0,0 l/m 0 min 0 min 97 W/m 12,6 km/h (3 Bft)
14.08.2015 18:24 25,4 C 23,3 C 70 % 0 lf 1006,4 hPa 0,0 l/m 0 min 0 min 95 W/m 14,6 km/h (3 Bft)
14.08.2015 18:26 25,4 C 23,3 C 70 % 0 lf 1006,4 hPa 0,0 l/m 0 min 0 min 99 W/m 12,6 km/h (3 Bft)
14.08.2015 18:28 25,4 C 23,3 C 70 % 0 lf 1006,4 hPa 0,0 l/m 0 min 0 min 140 W/m 14,6 km/h (3 Bft)
14.08.2015 18:30 25,4 C 23,3 C 70 % 0 lf 1006,3 hPa 0,0 l/m 2 min 0 min 334 W/m 10,5 km/h (2 Bft)
14.08.2015 18:32 25,3 C 23,3 C 70 % 0 lf 1006,3 hPa 0,0 l/m 2 min 0 min 256 W/m 10,5 km/h (2 Bft)
14.08.2015 18:34 25,3 C 23,3 C 71 % 0 lf 1006,2 hPa 0,0 l/m 2 min 0 min 256 W/m 8,4 km/h (2 Bft)
14.08.2015 18:36 25,3 C 23,3 C 72 % 0 lf 1006,2 hPa 0,0 l/m 2 min 0 min 308 W/m 6,3 km/h (2 Bft)
14.08.2015 18:38 25,3 C 23,9 C 72 % 0 lf 1006,1 hPa 0,0 l/m 2 min 0 min 340 W/m 8,4 km/h (2 Bft)
14.08.2015 18:40 25,3 C 23,9 C 72 % 0 lf 1006,1 hPa 0,0 l/m 2 min 0 min 359 W/m 10,5 km/h (2 Bft)
14.08.2015 18:42 25,4 C 23,9 C 72 % 0 lf 1006,1 hPa 0,0 l/m 2 min 0 min 349 W/m 12,6 km/h (3 Bft)
14.08.2015 18:44 25,3 C 23,9 C 71 % 0 lf 1006,1 hPa 0,0 l/m 2 min 0 min 318 W/m 12,6 km/h (3 Bft)
14.08.2015 18:46 25,3 C 23,9 C 71 % 0 lf 1006,1 hPa 0,0 l/m 2 min 0 min 253 W/m 12,6 km/h (3 Bft)
14.08.2015 18:48 25,3 C 23,9 C 71 % 0 lf 1006,1 hPa 0,0 l/m 2 min 0 min 198 W/m 12,6 km/h (3 Bft)
14.08.2015 18:50 25,3 C 23,9 C 71 % 0 lf 1006,0 hPa 0,0 l/m 2 min 0 min 214 W/m 10,5 km/h (2 Bft)
14.08.2015 18:52 25,3 C 23,3 C 71 % 0 lf 1006,0 hPa 0,0 l/m 2 min 0 min 287 W/m 8,4 km/h (2 Bft)
14.08.2015 18:54 25,3 C 23,9 C 72 % 0 lf 1006,0 hPa 0,0 l/m 2 min 0 min 297 W/m 14,6 km/h (3 Bft)
14.08.2015 18:56 25,3 C 23,9 C 72 % 0 lf 1006,0 hPa 0,0 l/m 2 min 0 min 277 W/m 8,4 km/h (2 Bft)
14.08.2015 18:58 25,3 C 23,9 C 72 % 0 lf 1006,0 hPa 0,0 l/m 2 min 0 min 246 W/m 10,5 km/h (2 Bft)
14.08.2015 19:00 25,3 C 23,9 C 72 % 0 lf 1006,0 hPa 0,0 l/m 2 min 0 min 266 W/m 10,5 km/h (2 Bft)
14.08.2015 19:02 25,3 C 23,9 C 72 % 0 lf 1006,0 hPa 0,0 l/m 2 min 0 min 256 W/m 10,5 km/h (2 Bft)
14.08.2015 19:04 25,3 C 23,9 C 72 % 0 lf 1006,0 hPa 0,0 l/m 2 min 0 min 245 W/m 8,4 km/h (2 Bft)
14.08.2015 19:06 25,3 C 23,3 C 71 % 0 lf 1006,0 hPa 0,0 l/m 2 min 0 min 233 W/m 8,4 km/h (2 Bft)
14.08.2015 19:08 25,3 C 23,3 C 71 % 0 lf 1006,0 hPa 0,0 l/m 2 min 0 min 220 W/m 10,5 km/h (2 Bft)
14.08.2015 19:10 25,3 C 23,3 C 71 % 0 lf 1005,9 hPa 0,0 l/m 2 min 0 min 211 W/m 6,3 km/h (2 Bft)
14.08.2015 19:12 25,3 C 23,3 C 71 % 0 lf 1006,0 hPa 0,0 l/m 2 min 0 min 205 W/m 8,4 km/h (2 Bft)
14.08.2015 19:14 25,3 C 23,3 C 72 % 0 lf 1006,0 hPa 0,0 l/m 2 min 0 min 199 W/m 4,2 km/h (1 Bft)
14.08.2015 19:16 25,3 C 23,3 C 72 % 0 lf 1006,1 hPa 0,0 l/m 2 min 0 min 193 W/m 4,2 km/h (1 Bft)
14.08.2015 19:18 25,3 C 23,3 C 72 % 0 lf 1006,1 hPa 0,0 l/m 2 min 0 min 186 W/m 6,3 km/h (2 Bft)
14.08.2015 19:20 25,3 C 23,3 C 72 % 0 lf 1006,1 hPa 0,0 l/m 2 min 0 min 176 W/m 6,3 km/h (2 Bft)
14.08.2015 19:22 25,2 C 23,3 C 72 % 0 lf 1006,1 hPa 0,0 l/m 2 min 0 min 163 W/m 6,3 km/h (2 Bft)
14.08.2015 19:24 25,2 C 23,3 C 71 % 0 lf 1006,1 hPa 0,0 l/m 2 min 0 min 143 W/m 4,2 km/h (1 Bft)
14.08.2015 19:26 25,2 C 22,8 C 71 % 0 lf 1006,2 hPa 0,0 l/m 2 min 0 min 126 W/m 4,2 km/h (1 Bft)
14.08.2015 19:28 25,2 C 23,3 C 71 % 0 lf 1006,2 hPa 0,0 l/m 0 min 0 min 98 W/m 4,2 km/h (1 Bft)
14.08.2015 19:30 25,2 C 23,3 C 71 % 0 lf 1006,2 hPa 0,0 l/m 2 min 0 min 117 W/m 6,3 km/h (2 Bft)
14.08.2015 19:32 25,2 C 23,3 C 71 % 0 lf 1006,3 hPa 0,0 l/m 2 min 0 min 116 W/m 4,2 km/h (1 Bft)
14.08.2015 19:34 25,1 C 22,8 C 71 % 0 lf 1006,3 hPa 0,0 l/m 0 min 0 min 69 W/m 4,2 km/h (1 Bft)
14.08.2015 19:36 25,1 C 22,8 C 71 % 0 lf 1006,2 hPa 0,0 l/m 0 min 0 min 63 W/m 2,1 km/h (1 Bft)
14.08.2015 19:38 25,1 C 22,8 C 71 % 0 lf 1006,1 hPa 0,0 l/m 0 min 0 min 59 W/m 2,1 km/h (1 Bft)
14.08.2015 19:40 25,1 C 22,8 C 71 % 0 lf 1006,1 hPa 0,0 l/m 0 min 0 min 44 W/m 4,2 km/h (1 Bft)
14.08.2015 19:42 25,1 C 22,8 C 71 % 0 lf 1006,1 hPa 0,0 l/m 0 min 0 min 42 W/m 2,1 km/h (1 Bft)
14.08.2015 19:44 25,1 C 22,8 C 71 % 0 lf 1006,0 hPa 0,0 l/m 0 min 0 min 45 W/m 6,3 km/h (2 Bft)
14.08.2015 19:46 25,1 C 22,8 C 71 % 0 lf 1006,1 hPa 0,0 l/m 0 min 0 min 54 W/m 6,3 km/h (2 Bft)
14.08.2015 19:48 25,1 C 22,8 C 71 % 0 lf 1006,1 hPa 0,0 l/m 0 min 0 min 74 W/m 6,3 km/h (2 Bft)
14.08.2015 19:50 25,1 C 22,8 C 71 % 0 lf 1006,0 hPa 0,0 l/m 0 min 0 min 78 W/m 6,3 km/h (2 Bft)
14.08.2015 19:52 25,1 C 22,8 C 71 % 0 lf 1006,0 hPa 0,0 l/m 0 min 0 min 75 W/m 6,3 km/h (2 Bft)
14.08.2015 19:54 25,1 C 23,3 C 71 % 0 lf 1006,0 hPa 0,0 l/m 0 min 0 min 52 W/m 6,3 km/h (2 Bft)
14.08.2015 19:56 25,0 C 22,8 C 71 % 0 lf 1006,1 hPa 0,0 l/m 0 min 0 min 38 W/m 6,3 km/h (2 Bft)
14.08.2015 19:58 25,0 C 22,8 C 71 % 0 lf 1006,1 hPa 0,0 l/m 0 min 0 min 32 W/m 4,2 km/h (1 Bft)
14.08.2015 20:00 25,0 C 22,8 C 71 % 0 lf 1006,2 hPa 0,0 l/m 0 min 0 min 30 W/m 6,3 km/h (2 Bft)
14.08.2015 20:02 24,9 C 22,8 C 72 % 0 lf 1006,2 hPa 0,0 l/m 0 min 0 min 32 W/m 6,3 km/h (2 Bft)
14.08.2015 20:04 24,9 C 22,8 C 72 % 0 lf 1006,1 hPa 0,0 l/m 0 min 0 min 30 W/m 6,3 km/h (2 Bft)
14.08.2015 20:06 24,9 C 22,8 C 72 % 0 lf 1006,1 hPa 0,0 l/m 0 min 0 min 32 W/m 6,3 km/h (2 Bft)
14.08.2015 20:08 24,9 C 22,8 C 72 % 0 lf 1006,1 hPa 0,0 l/m 0 min 0 min 36 W/m 6,3 km/h (2 Bft)
14.08.2015 20:10 24,9 C 22,8 C 72 % 0 lf 1006,0 hPa 0,0 l/m 0 min 0 min 33 W/m 4,2 km/h (1 Bft)
14.08.2015 20:12 24,8 C 22,8 C 72 % 0 lf 1006,0 hPa 0,0 l/m 0 min 0 min 33 W/m 4,2 km/h (1 Bft)
14.08.2015 20:14 24,8 C 22,8 C 72 % 0 lf 1006,0 hPa 0,0 l/m 0 min 0 min 29 W/m 4,2 km/h (1 Bft)
14.08.2015 20:16 24,8 C 22,8 C 72 % 0 lf 1006,0 hPa 0,0 l/m 0 min 0 min 27 W/m 2,1 km/h (1 Bft)
14.08.2015 20:18 24,8 C 22,2 C 72 % 0 lf 1006,0 hPa 0,0 l/m 0 min 0 min 28 W/m 6,3 km/h (2 Bft)
14.08.2015 20:20 24,7 C 22,2 C 72 % 0 lf 1006,0 hPa 0,0 l/m 0 min 0 min 26 W/m 4,2 km/h (1 Bft)
14.08.2015 20:22 24,7 C 22,2 C 72 % 0 lf 1006,0 hPa 0,0 l/m 0 min 0 min 25 W/m 4,2 km/h (1 Bft)
14.08.2015 20:24 24,7 C 21,7 C 72 % 0 lf 1006,0 hPa 0,0 l/m 0 min 0 min 23 W/m 2,1 km/h (1 Bft)
14.08.2015 20:26 24,7 C 21,7 C 72 % 0 lf 1006,0 hPa 0,0 l/m 0 min 0 min 23 W/m 4,2 km/h (1 Bft)
14.08.2015 20:28 24,6 C 21,7 C 73 % 0 lf 1006,0 hPa 0,0 l/m 0 min 0 min 21 W/m 2,1 km/h (1 Bft)
14.08.2015 20:30 24,6 C 21,1 C 73 % 0 lf 1006,0 hPa 0,0 l/m 0 min 0 min 19 W/m 2,1 km/h (1 Bft)
14.08.2015 20:32 24,6 C 21,1 C 73 % 0 lf 1006,0 hPa 0,0 l/m 0 min 0 min 17 W/m 2,1 km/h (1 Bft)
14.08.2015 20:34 24,6 C 21,1 C 73 % 0 lf 1006,0 hPa 0,0 l/m 0 min 0 min 14 W/m 2,1 km/h (1 Bft)
14.08.2015 20:36 24,5 C 21,1 C 73 % 0 lf 1006,0 hPa 0,0 l/m 0 min 0 min 14 W/m 4,2 km/h (1 Bft)
14.08.2015 20:38 24,4 C 20,6 C 73 % 0 lf 1006,0 hPa 0,0 l/m 0 min 0 min 14 W/m 4,2 km/h (1 Bft)
14.08.2015 20:40 24,4 C 20,6 C 73 % 0 lf 1006,1 hPa 0,0 l/m 0 min 0 min 13 W/m 4,2 km/h (1 Bft)
14.08.2015 20:42 24,4 C 20,6 C 74 % 0 lf 1006,1 hPa 0,0 l/m 0 min 0 min 12 W/m 6,3 km/h (2 Bft)
14.08.2015 20:44 24,3 C 20,6 C 74 % 0 lf 1006,1 hPa 0,0 l/m 0 min 0 min 12 W/m 4,2 km/h (1 Bft)
14.08.2015 20:46 24,3 C 20,6 C 74 % 0 lf 1006,2 hPa 0,0 l/m 0 min 0 min 12 W/m 2,1 km/h (1 Bft)
14.08.2015 20:48 24,2 C 20,6 C 74 % 0 lf 1006,1 hPa 0,0 l/m 0 min 0 min 11 W/m 4,2 km/h (1 Bft)
14.08.2015 20:50 24,2 C 20,6 C 74 % 0 lf 1006,1 hPa 0,0 l/m 0 min 0 min 10 W/m 4,2 km/h (1 Bft)
14.08.2015 20:52 24,1 C 20,0 C 74 % 0 lf 1006,1 hPa 0,0 l/m 0 min 0 min 9 W/m 4,2 km/h (1 Bft)
14.08.2015 20:54 24,1 C 20,0 C 74 % 0 lf 1006,0 hPa 0,0 l/m 0 min 0 min 8 W/m 4,2 km/h (1 Bft)
14.08.2015 20:56 24,0 C 20,0 C 75 % 0 lf 1006,1 hPa 0,0 l/m 0 min 0 min 7 W/m 4,2 km/h (1 Bft)
14.08.2015 20:58 23,9 C 20,0 C 75 % 0 lf 1006,1 hPa 0,0 l/m 0 min 0 min 6 W/m 2,1 km/h (1 Bft)
14.08.2015 21:00 23,9 C 20,0 C 75 % 0 lf 1006,0 hPa 0,0 l/m 0 min 0 min 5 W/m 2,1 km/h (1 Bft)
14.08.2015 21:02 23,8 C 20,0 C 75 % 0 lf 1006,1 hPa 0,0 l/m 0 min 0 min 5 W/m 4,2 km/h (1 Bft)
14.08.2015 21:04 23,8 C 20,0 C 75 % 0 lf 1006,1 hPa 0,0 l/m 0 min 0 min 1 W/m 2,1 km/h (1 Bft)
14.08.2015 21:06 23,7 C 20,0 C 75 % 0 lf 1006,1 hPa 0,0 l/m 0 min 0 min 0 W/m 2,1 km/h (1 Bft)
14.08.2015 21:08 23,7 C 19,4 C 76 % 0 lf 1006,2 hPa 0,0 l/m 0 min 0 min 0 W/m 4,2 km/h (1 Bft)
14.08.2015 21:10 23,6 C 19,4 C 76 % 0 lf 1006,2 hPa 0,0 l/m 0 min 0 min 0 W/m 2,1 km/h (1 Bft)
14.08.2015 21:12 23,6 C 19,4 C 76 % 0 lf 1006,2 hPa 0,0 l/m 0 min 0 min 0 W/m 2,1 km/h (1 Bft)
14.08.2015 21:14 23,5 C 19,4 C 76 % 0 lf 1006,2 hPa 0,0 l/m 0 min 0 min 0 W/m 0,0 km/h (0 Bft)
14.08.2015 21:16 23,4 C 19,4 C 76 % 0 lf 1006,3 hPa 0,0 l/m 0 min 0 min 0 W/m 0,0 km/h (0 Bft)
14.08.2015 21:18 23,4 C 19,4 C 77 % 0 lf 1006,3 hPa 0,0 l/m 0 min 0 min 0 W/m 0,0 km/h (0 Bft)
14.08.2015 21:20 23,3 C 19,4 C 77 % 0 lf 1006,3 hPa 0,0 l/m 0 min 0 min 0 W/m 0,0 km/h (0 Bft)
14.08.2015 21:22 23,3 C 19,4 C 77 % 0 lf 1006,3 hPa 0,0 l/m 0 min 0 min 0 W/m 0,0 km/h (0 Bft)
14.08.2015 21:24 23,2 C 19,4 C 78 % 0 lf 1006,2 hPa 0,0 l/m 0 min 0 min 0 W/m 0,0 km/h (0 Bft)
14.08.2015 21:26 23,1 C 19,4 C 78 % 0 lf 1006,3 hPa 0,0 l/m 0 min 0 min 0 W/m 0,0 km/h (0 Bft)
14.08.2015 21:28 23,1 C 18,9 C 78 % 0 lf 1006,3 hPa 0,0 l/m 0 min 0 min 0 W/m 2,1 km/h (1 Bft)
14.08.2015 21:30 23,1 C 18,9 C 78 % 0 lf 1006,3 hPa 0,0 l/m 0 min 0 min 0 W/m 4,2 km/h (1 Bft)
14.08.2015 21:32 22,9 C 18,9 C 78 % 0 lf 1006,4 hPa 0,0 l/m 0 min 0 min 0 W/m 4,2 km/h (1 Bft)
14.08.2015 21:34 22,9 C 18,9 C 78 % 0 lf 1006,4 hPa 0,0 l/m 0 min 0 min 0 W/m 2,1 km/h (1 Bft)
14.08.2015 21:36 22,8 C 18,9 C 79 % 0 lf 1006,3 hPa 0,0 l/m 0 min 0 min 0 W/m 4,2 km/h (1 Bft)
14.08.2015 21:38 22,8 C 18,9 C 79 % 0 lf 1006,4 hPa 0,0 l/m 0 min 0 min 0 W/m 2,1 km/h (1 Bft)
14.08.2015 21:40 22,7 C 18,9 C 79 % 0 lf 1006,4 hPa 0,0 l/m 0 min 0 min 0 W/m 0,0 km/h (0 Bft)
14.08.2015 21:42 22,7 C 18,9 C 79 % 0 lf 1006,4 hPa 0,0 l/m 0 min 0 min 0 W/m 0,0 km/h (0 Bft)
14.08.2015 21:44 22,6 C 18,9 C 79 % 0 lf 1006,3 hPa 0,0 l/m 0 min 0 min 0 W/m 0,0 km/h (0 Bft)
14.08.2015 21:46 22,6 C 18,9 C 80 % 0 lf 1006,3 hPa 0,0 l/m 0 min 0 min 0 W/m 0,0 km/h (0 Bft)
14.08.2015 21:48 22,5 C 18,9 C 80 % 0 lf 1006,4 hPa 0,0 l/m 0 min 0 min 0 W/m 2,1 km/h (1 Bft)
14.08.2015 21:50 22,5 C 18,9 C 81 % 0 lf 1006,4 hPa 0,0 l/m 0 min 0 min 0 W/m 2,1 km/h (1 Bft)
14.08.2015 21:52 22,4 C 18,9 C 81 % 0 lf 1006,3 hPa 0,0 l/m 0 min 0 min 0 W/m 2,1 km/h (1 Bft)
14.08.2015 21:54 22,4 C 18,9 C 81 % 0 lf 1006,3 hPa 0,0 l/m 0 min 0 min 0 W/m 4,2 km/h (1 Bft)
14.08.2015 21:56 22,3 C 18,9 C 81 % 0 lf 1006,4 hPa 0,0 l/m 0 min 0 min 0 W/m 4,2 km/h (1 Bft)
14.08.2015 21:58 22,2 C 18,9 C 81 % 0 lf 1006,3 hPa 0,0 l/m 0 min 0 min 0 W/m 2,1 km/h (1 Bft)
14.08.2015 22:00 22,2 C 18,9 C 81 % 0 lf 1006,4 hPa 0,0 l/m 0 min 0 min 0 W/m 4,2 km/h (1 Bft)
14.08.2015 22:02 22,1 C 18,3 C 81 % 0 lf 1006,4 hPa 0,0 l/m 0 min 0 min 0 W/m 4,2 km/h (1 Bft)
14.08.2015 22:04 22,1 C 18,3 C 81 % 0 lf 1006,4 hPa 0,0 l/m 0 min 0 min 0 W/m 4,2 km/h (1 Bft)
14.08.2015 22:06 22,0 C 18,3 C 81 % 0 lf 1006,5 hPa 0,0 l/m 0 min 0 min 0 W/m 2,1 km/h (1 Bft)
14.08.2015 22:08 21,9 C 18,3 C 82 % 0 lf 1006,5 hPa 0,0 l/m 0 min 0 min 0 W/m 2,1 km/h (1 Bft)
14.08.2015 22:10 21,9 C 18,3 C 82 % 0 lf 1006,4 hPa 0,0 l/m 0 min 0 min 0 W/m 2,1 km/h (1 Bft)
14.08.2015 22:12 21,8 C 18,3 C 82 % 0 lf 1006,4 hPa 0,0 l/m 0 min 0 min 0 W/m 0,0 km/h (0 Bft)
14.08.2015 22:14 21,8 C 18,3 C 82 % 0 lf 1006,3 hPa 0,0 l/m 0 min 0 min 0 W/m 0,0 km/h (0 Bft)
14.08.2015 22:16 21,7 C 18,3 C 82 % 0 lf 1006,3 hPa 0,0 l/m 0 min 0 min 0 W/m 0,0 km/h (0 Bft)
14.08.2015 22:18 21,7 C 18,3 C 83 % 0 lf 1006,3 hPa 0,0 l/m 0 min 0 min 0 W/m 2,1 km/h (1 Bft)
14.08.2015 22:20 21,6 C 18,3 C 83 % 0 lf 1006,3 hPa 0,0 l/m 0 min 0 min 0 W/m 2,1 km/h (1 Bft)
14.08.2015 22:22 21,6 C 18,3 C 83 % 0 lf 1006,2 hPa 0,0 l/m 0 min 0 min 0 W/m 0,0 km/h (0 Bft)
14.08.2015 22:24 21,5 C 18,3 C 83 % 0 lf 1006,1 hPa 0,0 l/m 0 min 0 min 0 W/m 2,1 km/h (1 Bft)
14.08.2015 22:26 21,4 C 18,3 C 83 % 0 lf 1006,1 hPa 0,0 l/m 0 min 0 min 0 W/m 2,1 km/h (1 Bft)
14.08.2015 22:28 21,4 C 18,3 C 84 % 0 lf 1006,1 hPa 0,0 l/m 0 min 0 min 0 W/m 2,1 km/h (1 Bft)
14.08.2015 22:30 21,4 C 18,3 C 84 % 0 lf 1006,0 hPa 0,0 l/m 0 min 0 min 0 W/m 2,1 km/h (1 Bft)
14.08.2015 22:32 21,3 C 18,3 C 84 % 0 lf 1006,1 hPa 0,0 l/m 0 min 0 min 0 W/m 4,2 km/h (1 Bft)
14.08.2015 22:34 21,3 C 18,3 C 84 % 0 lf 1006,1 hPa 0,0 l/m 0 min 0 min 0 W/m 2,1 km/h (1 Bft)
14.08.2015 22:36 21,2 C 17,8 C 84 % 0 lf 1006,1 hPa 0,0 l/m 0 min 0 min 0 W/m 2,1 km/h (1 Bft)
14.08.2015 22:38 21,2 C 17,8 C 84 % 0 lf 1006,1 hPa 0,0 l/m 0 min 0 min 0 W/m 2,1 km/h (1 Bft)
14.08.2015 22:40 21,1 C 17,8 C 84 % 1 lf 1006,2 hPa 0,0 l/m 0 min 0 min 0 W/m 2,1 km/h (1 Bft)
14.08.2015 22:42 21,1 C 17,8 C 84 % 1 lf 1006,2 hPa 0,0 l/m 0 min 0 min 0 W/m 2,1 km/h (1 Bft)
14.08.2015 22:44 21,0 C 17,8 C 85 % 1 lf 1006,2 hPa 0,0 l/m 0 min 0 min 0 W/m 2,1 km/h (1 Bft)
14.08.2015 22:46 21,0 C 17,8 C 85 % 1 lf 1006,2 hPa 0,0 l/m 0 min 0 min 0 W/m 4,2 km/h (1 Bft)
14.08.2015 22:48 20,9 C 17,8 C 85 % 1 lf 1006,2 hPa 0,0 l/m 0 min 0 min 0 W/m 2,1 km/h (1 Bft)
14.08.2015 22:50 20,9 C 17,8 C 85 % 1 lf 1006,2 hPa 0,0 l/m 0 min 0 min 0 W/m 0,0 km/h (0 Bft)
14.08.2015 22:52 20,8 C 17,8 C 85 % 1 lf 1006,3 hPa 0,0 l/m 0 min 0 min 0 W/m 0,0 km/h (0 Bft)
14.08.2015 22:54 20,8 C 17,8 C 85 % 1 lf 1006,3 hPa 0,0 l/m 0 min 0 min 0 W/m 2,1 km/h (1 Bft)
14.08.2015 22:56 20,7 C 17,8 C 85 % 1 lf 1006,3 hPa 0,0 l/m 0 min 0 min 0 W/m 2,1 km/h (1 Bft)
14.08.2015 22:58 20,7 C 17,8 C 85 % 1 lf 1006,3 hPa 0,0 l/m 0 min 0 min 0 W/m 2,1 km/h (1 Bft)
14.08.2015 23:00 20,7 C 17,8 C 86 % 1 lf 1006,2 hPa 0,0 l/m 0 min 0 min 0 W/m 2,1 km/h (1 Bft)
14.08.2015 23:02 20,7 C 17,8 C 86 % 1 lf 1006,2 hPa 0,0 l/m 0 min 0 min 0 W/m 2,1 km/h (1 Bft)
14.08.2015 23:04 20,6 C 17,8 C 86 % 1 lf 1006,2 hPa 0,0 l/m 0 min 0 min 0 W/m 2,1 km/h (1 Bft)
14.08.2015 23:06 20,6 C 17,8 C 86 % 1 lf 1006,2 hPa 0,0 l/m 0 min 0 min 0 W/m 0,0 km/h (0 Bft)
14.08.2015 23:08 20,5 C 17,8 C 86 % 1 lf 1006,2 hPa 0,0 l/m 0 min 0 min 0 W/m 0,0 km/h (0 Bft)
14.08.2015 23:10 20,4 C 17,8 C 86 % 1 lf 1006,2 hPa 0,0 l/m 0 min 0 min 0 W/m 0,0 km/h (0 Bft)
14.08.2015 23:12 20,4 C 17,8 C 86 % 1 lf 1006,1 hPa 0,0 l/m 0 min 0 min 0 W/m 0,0 km/h (0 Bft)
14.08.2015 23:14 20,4 C 17,8 C 86 % 1 lf 1006,1 hPa 0,0 l/m 0 min 0 min 0 W/m 2,1 km/h (1 Bft)
14.08.2015 23:16 20,3 C 17,8 C 87 % 1 lf 1006,1 hPa 0,0 l/m 0 min 0 min 0 W/m 0,0 km/h (0 Bft)
14.08.2015 23:18 20,3 C 17,8 C 87 % 1 lf 1006,1 hPa 0,0 l/m 0 min 0 min 0 W/m 0,0 km/h (0 Bft)
14.08.2015 23:20 20,3 C 17,8 C 87 % 1 lf 1006,1 hPa 0,0 l/m 0 min 0 min 0 W/m 2,1 km/h (1 Bft)
14.08.2015 23:22 20,2 C 17,8 C 87 % 1 lf 1006,0 hPa 0,0 l/m 0 min 0 min 0 W/m 0,0 km/h (0 Bft)
14.08.2015 23:24 20,2 C 17,8 C 87 % 1 lf 1006,0 hPa 0,0 l/m 0 min 0 min 0 W/m 0,0 km/h (0 Bft)
14.08.2015 23:26 20,2 C 17,2 C 87 % 1 lf 1006,0 hPa 0,0 l/m 0 min 0 min 0 W/m 2,1 km/h (1 Bft)
14.08.2015 23:28 20,1 C 17,2 C 87 % 1 lf 1006,0 hPa 0,0 l/m 0 min 0 min 0 W/m 2,1 km/h (1 Bft)
14.08.2015 23:30 20,1 C 17,8 C 87 % 1 lf 1005,9 hPa 0,0 l/m 0 min 0 min 0 W/m 4,2 km/h (1 Bft)
14.08.2015 23:32 20,1 C 17,8 C 87 % 1 lf 1005,9 hPa 0,0 l/m 0 min 0 min 0 W/m 2,1 km/h (1 Bft)
14.08.2015 23:34 20,0 C 17,8 C 87 % 1 lf 1005,9 hPa 0,0 l/m 0 min 0 min 0 W/m 0,0 km/h (0 Bft)
14.08.2015 23:36 20,0 C 17,2 C 88 % 1 lf 1005,9 hPa 0,0 l/m 0 min 0 min 0 W/m 0,0 km/h (0 Bft)
14.08.2015 23:38 19,9 C 17,2 C 88 % 1 lf 1005,9 hPa 0,0 l/m 0 min 0 min 0 W/m 0,0 km/h (0 Bft)
14.08.2015 23:40 19,9 C 17,2 C 88 % 1 lf 1005,8 hPa 0,0 l/m 0 min 0 min 0 W/m 0,0 km/h (0 Bft)
14.08.2015 23:42 19,9 C 17,2 C 88 % 1 lf 1005,8 hPa 0,0 l/m 0 min 0 min 0 W/m 0,0 km/h (0 Bft)
14.08.2015 23:44 19,9 C 17,2 C 88 % 1 lf 1005,8 hPa 0,0 l/m 0 min 0 min 0 W/m 0,0 km/h (0 Bft)
14.08.2015 23:46 19,8 C 17,2 C 88 % 1 lf 1005,8 hPa 0,0 l/m 0 min 0 min 0 W/m 0,0 km/h (0 Bft)
14.08.2015 23:48 19,8 C 17,2 C 88 % 1 lf 1005,7 hPa 0,0 l/m 0 min 0 min 0 W/m 2,1 km/h (1 Bft)
14.08.2015 23:50 19,8 C 17,2 C 88 % 1 lf 1005,8 hPa 0,0 l/m 0 min 0 min 0 W/m 2,1 km/h (1 Bft)
14.08.2015 23:52 19,7 C 17,2 C 88 % 1 lf 1005,8 hPa 0,0 l/m 0 min 0 min 0 W/m 0,0 km/h (0 Bft)
14.08.2015 23:54 19,7 C 17,2 C 88 % 1 lf 1005,8 hPa 0,0 l/m 0 min 0 min 0 W/m 4,2 km/h (1 Bft)
14.08.2015 23:56 19,7 C 17,2 C 88 % 1 lf 1005,8 hPa 0,0 l/m 0 min 0 min 0 W/m 2,1 km/h (1 Bft)
14.08.2015 23:58 19,7 C 17,2 C 88 % 1 lf 1005,9 hPa 0,0 l/m 0 min 0 min 0 W/m 2,1 km/h (1 Bft)
_ Min-Zeit 06:58 23:26 15:12 00:00 23:48 - - - - 05:04
Minimum _ 19,6 C 17,2 C 58 % 0 lf 1005,7 hPa - - - - 0,0 km/h (0 Bft)
_ Max-Zeit 15:10 15:30 07:48 01:50 02:58 01:52 09:04 01:50 12:46 01:42
Maximum _ 28,7 C 28,3 C 97 % 15 lf 1009,6 hPa 0,2 l/m 2 min 2 min 946 W/m 31,4 km/h
SW (5 Bft)
Durchschnitt _ 23,4 C 21,3 C 80 % 4 lf 1007,6 hPa #1,2 l/m #5:53 h #1:36 h 278 W/m 9,9 km/h (2 Bft)
© 2015 W. Hausmann